Wetterdaten: Sonntag, 05.07.2020
Datum Zeit Temp. Aussen Temp. o. S. Temp +5cm Feuchte Auss Luftdruck Regen Sonnenschein Regendauer Solar Windben Empfang
05.07.2020 00:00 18,6 C 17,2 C 17,2 C 95 % 1013,5 hPa 0,0 l/m 0 min 0 min 0 W/m 25,7 km/h (4 Bft) 95,74 %
05.07.2020 00:02 18,6 C 17,2 C 17,2 C 95 % 1013,5 hPa 0,0 l/m 0 min 0 min 0 W/m 16,1 km/h (3 Bft) 91,89 %
05.07.2020 00:04 18,7 C 17,2 C 17,2 C 95 % 1013,5 hPa 0,0 l/m 0 min 0 min 0 W/m 35,4 km/h (5 Bft) 95,65 %
05.07.2020 00:07 18,6 C 17,2 C 17,2 C 95 % 1013,3 hPa 0,0 l/m 0 min 0 min 0 W/m 38,6 km/h (5 Bft) 95,12 %
05.07.2020 00:08 18,6 C 17,2 C 17,2 C 95 % 1013,3 hPa 0,0 l/m 0 min 0 min 0 W/m 38,6 km/h (5 Bft) 91,67 %
05.07.2020 00:10 18,6 C 17,2 C 17,2 C 95 % 1013,4 hPa 0,0 l/m 0 min 0 min 0 W/m 29,0 km/h (5 Bft) 95,74 %
05.07.2020 00:12 18,6 C 17,2 C 17,2 C 95 % 1013,3 hPa 0,0 l/m 0 min 0 min 0 W/m 22,5 km/h (4 Bft) 95,74 %
05.07.2020 00:14 18,6 C 17,2 C 17,2 C 95 % 1013,4 hPa 0,0 l/m 0 min 0 min 0 W/m 25,7 km/h (4 Bft) 95,74 %
05.07.2020 00:16 18,7 C 17,2 C 17,2 C 95 % 1013,4 hPa 0,0 l/m 0 min 0 min 0 W/m 25,7 km/h (4 Bft) 95,65 %
05.07.2020 00:18 18,7 C 17,2 C 17,2 C 95 % 1013,2 hPa 0,0 l/m 0 min 0 min 0 W/m 22,5 km/h (4 Bft) 95,74 %
05.07.2020 00:20 18,7 C 17,2 C 17,2 C 95 % 1013,3 hPa 0,0 l/m 0 min 0 min 0 W/m 25,7 km/h (4 Bft) 95,74 %
05.07.2020 00:22 18,7 C 17,2 C 17,2 C 95 % 1013,3 hPa 0,0 l/m 0 min 0 min 0 W/m 16,1 km/h (3 Bft) 95,74 %
05.07.2020 00:24 18,7 C 17,2 C 17,2 C 95 % 1013,2 hPa 0,0 l/m 0 min 0 min 0 W/m 22,5 km/h (4 Bft) 93,62 %
05.07.2020 00:26 18,7 C 17,2 C 17,2 C 95 % 1013,2 hPa 0,0 l/m 0 min 0 min 0 W/m 16,1 km/h (3 Bft) 95,74 %
05.07.2020 00:28 18,7 C 17,2 C 17,2 C 95 % 1013,2 hPa 0,0 l/m 0 min 0 min 0 W/m 29,0 km/h (5 Bft) 97,83 %
05.07.2020 00:30 18,7 C 17,2 C 17,2 C 95 % 1013,2 hPa 0,0 l/m 0 min 0 min 0 W/m 22,5 km/h (4 Bft) 97,87 %
05.07.2020 00:32 18,7 C 17,2 C 17,2 C 95 % 1013,2 hPa 0,0 l/m 0 min 0 min 0 W/m 25,7 km/h (4 Bft) 97,87 %
05.07.2020 00:34 18,7 C 17,2 C 17,2 C 95 % 1013,2 hPa 0,0 l/m 0 min 0 min 0 W/m 22,5 km/h (4 Bft) 93,62 %
05.07.2020 00:36 18,7 C 17,2 C 17,2 C 95 % 1013,2 hPa 0,0 l/m 0 min 0 min 0 W/m 19,3 km/h (3 Bft) 97,87 %
05.07.2020 00:38 18,7 C 17,2 C 17,2 C 95 % 1013,2 hPa 0,0 l/m 0 min 0 min 0 W/m 22,5 km/h (4 Bft) 96,55 %
05.07.2020 00:40 18,7 C 17,2 C 17,2 C 95 % 1013,2 hPa 0,0 l/m 0 min 0 min 0 W/m 22,5 km/h (4 Bft) 94,29 %
05.07.2020 00:42 18,7 C 17,2 C 17,2 C 95 % 1013,3 hPa 0,0 l/m 0 min 0 min 0 W/m 16,1 km/h (3 Bft) 95,74 %
05.07.2020 00:44 18,7 C 17,2 C 17,2 C 95 % 1013,2 hPa 0,0 l/m 0 min 0 min 0 W/m 22,5 km/h (4 Bft) 95,74 %
05.07.2020 00:46 18,7 C 17,2 C 17,2 C 95 % 1013,2 hPa 0,0 l/m 0 min 0 min 0 W/m 19,3 km/h (3 Bft) 93,62 %
05.07.2020 00:48 18,7 C 17,2 C 17,2 C 95 % 1013,2 hPa 0,0 l/m 0 min 0 min 0 W/m 35,4 km/h (5 Bft) 95,74 %
05.07.2020 00:50 18,7 C 17,2 C 17,2 C 95 % 1013,2 hPa 0,0 l/m 0 min 0 min 0 W/m 16,1 km/h (3 Bft) 93,48 %
05.07.2020 00:52 18,7 C 17,2 C 17,2 C 95 % 1013,2 hPa 0,0 l/m 0 min 0 min 0 W/m 25,7 km/h (4 Bft) 97,87 %
05.07.2020 00:54 18,7 C 17,2 C 17,2 C 95 % 1013,2 hPa 0,0 l/m 0 min 0 min 0 W/m 22,5 km/h (4 Bft) 97,87 %
05.07.2020 00:56 18,7 C 17,2 C 17,2 C 95 % 1013,2 hPa 0,0 l/m 0 min 0 min 0 W/m 16,1 km/h (3 Bft) 97,87 %
05.07.2020 00:58 18,7 C 17,2 C 17,2 C 95 % 1013,1 hPa 0,0 l/m 0 min 0 min 0 W/m 16,1 km/h (3 Bft) 97,87 %
05.07.2020 01:00 18,7 C 17,2 C 17,2 C 95 % 1013,2 hPa 0,0 l/m 0 min 0 min 0 W/m 16,1 km/h (3 Bft) 95,74 %
05.07.2020 01:02 18,7 C 17,2 C 17,2 C 95 % 1013,2 hPa 0,0 l/m 0 min 0 min 0 W/m 19,3 km/h (3 Bft) 95,74 %
05.07.2020 01:04 18,8 C 17,2 C 17,2 C 95 % 1013,1 hPa 0,0 l/m 0 min 0 min 0 W/m 12,9 km/h (3 Bft) 97,87 %
05.07.2020 01:06 18,8 C 17,2 C 17,2 C 95 % 1013,2 hPa 0,0 l/m 0 min 0 min 0 W/m 19,3 km/h (3 Bft) 97,87 %
05.07.2020 01:08 18,8 C 17,8 C 17,2 C 95 % 1013,1 hPa 0,0 l/m 0 min 0 min 0 W/m 25,7 km/h (4 Bft) 95,74 %
05.07.2020 01:10 18,8 C 17,8 C 17,8 C 95 % 1013,1 hPa 0,0 l/m 0 min 0 min 0 W/m 16,1 km/h (3 Bft) 95,74 %
05.07.2020 01:12 18,8 C 17,8 C 17,8 C 95 % 1013,1 hPa 0,0 l/m 0 min 0 min 0 W/m 25,7 km/h (4 Bft) 95,74 %
05.07.2020 01:14 18,8 C 17,8 C 17,8 C 95 % 1013,1 hPa 0,0 l/m 0 min 0 min 0 W/m 12,9 km/h (3 Bft) 97,83 %
05.07.2020 01:16 18,8 C 17,8 C 17,8 C 95 % 1013,1 hPa 0,0 l/m 0 min 0 min 0 W/m 25,7 km/h (4 Bft) 97,87 %
05.07.2020 01:18 18,8 C 17,8 C 17,8 C 95 % 1013,1 hPa 0,0 l/m 0 min 0 min 0 W/m 38,6 km/h (5 Bft) 97,87 %
05.07.2020 01:20 18,9 C 17,8 C 17,8 C 94 % 1013,2 hPa 0,0 l/m 0 min 0 min 0 W/m 22,5 km/h (4 Bft) 97,87 %
05.07.2020 01:22 18,9 C 17,8 C 17,8 C 94 % 1013,2 hPa 0,0 l/m 0 min 0 min 0 W/m 38,6 km/h (5 Bft) 95,74 %
05.07.2020 01:24 18,9 C 17,8 C 17,8 C 94 % 1013,0 hPa 0,0 l/m 0 min 0 min 0 W/m 35,4 km/h (5 Bft) 97,83 %
05.07.2020 01:26 18,9 C 17,8 C 17,8 C 94 % 1013,0 hPa 0,0 l/m 0 min 0 min 0 W/m 19,3 km/h (3 Bft) 97,87 %
05.07.2020 01:28 19,0 C 17,8 C 17,8 C 94 % 1012,9 hPa 0,0 l/m 0 min 0 min 0 W/m 25,7 km/h (4 Bft) 100,00 %
05.07.2020 01:30 19,0 C 17,8 C 17,8 C 94 % 1013,1 hPa 0,0 l/m 0 min 0 min 0 W/m 25,7 km/h (4 Bft) 100,00 %
05.07.2020 01:32 19,0 C 17,8 C 17,8 C 94 % 1013,0 hPa 0,0 l/m 0 min 0 min 0 W/m 22,5 km/h (4 Bft) 100,00 %
05.07.2020 01:34 19,1 C 17,8 C 17,8 C 94 % 1013,1 hPa 0,0 l/m 0 min 0 min 0 W/m 22,5 km/h (4 Bft) 95,74 %
05.07.2020 01:36 19,1 C 17,8 C 17,8 C 94 % 1013,1 hPa 0,0 l/m 0 min 0 min 0 W/m 19,3 km/h (3 Bft) 100,00 %
05.07.2020 01:38 19,1 C 17,8 C 17,8 C 94 % 1013,1 hPa 0,0 l/m 0 min 0 min 0 W/m 22,5 km/h (4 Bft) 100,00 %
05.07.2020 01:40 19,1 C 17,8 C 17,8 C 94 % 1013,1 hPa 0,0 l/m 0 min 0 min 0 W/m 25,7 km/h (4 Bft) 100,00 %
05.07.2020 01:42 19,1 C 17,8 C 17,8 C 93 % 1013,0 hPa 0,0 l/m 0 min 0 min 0 W/m 25,7 km/h (4 Bft) 97,87 %
05.07.2020 01:44 19,2 C 17,8 C 17,8 C 93 % 1013,0 hPa 0,0 l/m 0 min 0 min 0 W/m 32,2 km/h (5 Bft) 100,00 %
05.07.2020 01:46 19,2 C 17,8 C 17,8 C 93 % 1013,0 hPa 0,0 l/m 0 min 0 min 0 W/m 19,3 km/h (3 Bft) 100,00 %
05.07.2020 01:48 19,2 C 17,8 C 17,8 C 93 % 1013,0 hPa 0,0 l/m 0 min 0 min 0 W/m 29,0 km/h (5 Bft) 100,00 %
05.07.2020 01:50 19,2 C 17,8 C 17,8 C 93 % 1013,0 hPa 0,0 l/m 0 min 0 min 0 W/m 16,1 km/h (3 Bft) 100,00 %
05.07.2020 01:52 19,3 C 17,8 C 17,8 C 93 % 1012,8 hPa 0,0 l/m 0 min 0 min 0 W/m 25,7 km/h (4 Bft) 97,87 %
05.07.2020 01:54 19,3 C 17,8 C 17,8 C 93 % 1012,8 hPa 0,0 l/m 0 min 0 min 0 W/m 35,4 km/h (5 Bft) 97,87 %
05.07.2020 01:56 19,3 C 18,3 C 17,8 C 92 % 1012,9 hPa 0,0 l/m 0 min 0 min 0 W/m 29,0 km/h (5 Bft) 97,87 %
05.07.2020 01:58 19,3 C 18,3 C 17,8 C 92 % 1012,9 hPa 0,0 l/m 0 min 0 min 0 W/m 25,7 km/h (4 Bft) 100,00 %
05.07.2020 02:00 19,3 C 18,3 C 17,8 C 92 % 1012,9 hPa 0,0 l/m 0 min 0 min 0 W/m 22,5 km/h (4 Bft) 100,00 %
05.07.2020 02:02 19,3 C 18,3 C 17,8 C 92 % 1012,9 hPa 0,0 l/m 0 min 0 min 0 W/m 25,7 km/h (4 Bft) 100,00 %
05.07.2020 02:04 19,3 C 18,3 C 17,8 C 92 % 1012,9 hPa 0,0 l/m 0 min 0 min 0 W/m 16,1 km/h (3 Bft) 97,87 %
05.07.2020 02:06 19,4 C 18,3 C 17,8 C 92 % 1012,9 hPa 0,0 l/m 0 min 0 min 0 W/m 29,0 km/h (5 Bft) 100,00 %
05.07.2020 02:08 19,4 C 18,3 C 17,8 C 92 % 1012,9 hPa 0,0 l/m 0 min 0 min 0 W/m 29,0 km/h (5 Bft) 97,87 %
05.07.2020 02:10 19,4 C 18,3 C 17,8 C 92 % 1012,9 hPa 0,0 l/m 0 min 0 min 0 W/m 19,3 km/h (3 Bft) 97,87 %
05.07.2020 02:12 19,4 C 18,3 C 18,3 C 92 % 1012,9 hPa 0,0 l/m 0 min 0 min 0 W/m 35,4 km/h (5 Bft) 97,83 %
05.07.2020 02:14 19,4 C 18,3 C 18,3 C 92 % 1012,8 hPa 0,0 l/m 0 min 0 min 0 W/m 25,7 km/h (4 Bft) 100,00 %
05.07.2020 02:16 19,4 C 18,3 C 18,3 C 92 % 1012,8 hPa 0,0 l/m 0 min 0 min 0 W/m 29,0 km/h (5 Bft) 100,00 %
05.07.2020 02:18 19,4 C 18,3 C 18,3 C 91 % 1012,8 hPa 0,0 l/m 0 min 0 min 0 W/m 22,5 km/h (4 Bft) 100,00 %
05.07.2020 02:20 19,5 C 18,3 C 18,3 C 91 % 1012,8 hPa 0,0 l/m 0 min 0 min 0 W/m 22,5 km/h (4 Bft) 100,00 %
05.07.2020 02:22 19,5 C 18,3 C 18,3 C 91 % 1012,8 hPa 0,0 l/m 0 min 0 min 0 W/m 22,5 km/h (4 Bft) 95,74 %
05.07.2020 02:24 19,5 C 18,3 C 18,3 C 91 % 1012,7 hPa 0,0 l/m 0 min 0 min 0 W/m 29,0 km/h (5 Bft) 97,83 %
05.07.2020 02:26 19,6 C 18,3 C 18,3 C 91 % 1012,8 hPa 0,0 l/m 0 min 0 min 0 W/m 25,7 km/h (4 Bft) 97,87 %
05.07.2020 02:28 19,6 C 18,9 C 18,3 C 91 % 1012,7 hPa 0,0 l/m 0 min 0 min 0 W/m 22,5 km/h (4 Bft) 100,00 %
05.07.2020 02:30 19,6 C 18,9 C 18,3 C 91 % 1013,0 hPa 0,0 l/m 0 min 0 min 0 W/m 29,0 km/h (5 Bft) 100,00 %
05.07.2020 02:32 19,6 C 18,9 C 18,3 C 91 % 1012,7 hPa 0,0 l/m 0 min 0 min 0 W/m 29,0 km/h (5 Bft) 97,87 %
05.07.2020 02:34 19,6 C 18,9 C 18,3 C 91 % 1012,8 hPa 0,0 l/m 0 min 0 min 0 W/m 38,6 km/h (5 Bft) 97,83 %
05.07.2020 02:36 19,6 C 18,9 C 18,3 C 91 % 1012,7 hPa 0,0 l/m 0 min 0 min 0 W/m 25,7 km/h (4 Bft) 100,00 %
05.07.2020 02:38 19,6 C 18,9 C 18,3 C 91 % 1012,7 hPa 0,0 l/m 0 min 0 min 0 W/m 22,5 km/h (4 Bft) 100,00 %
05.07.2020 02:40 19,7 C 18,9 C 18,3 C 91 % 1012,7 hPa 0,0 l/m 0 min 0 min 0 W/m 19,3 km/h (3 Bft) 97,87 %
05.07.2020 02:42 19,7 C 18,9 C 18,3 C 91 % 1012,6 hPa 0,0 l/m 0 min 0 min 0 W/m 35,4 km/h (5 Bft) 97,87 %
05.07.2020 02:44 19,7 C 18,9 C 18,3 C 90 % 1012,7 hPa 0,0 l/m 0 min 0 min 0 W/m 48,3 km/h (6 Bft) 93,62 %
05.07.2020 02:46 19,7 C 18,9 C 18,3 C 90 % 1012,6 hPa 0,0 l/m 0 min 0 min 0 W/m 32,2 km/h (5 Bft) 97,83 %
05.07.2020 02:48 19,7 C 18,9 C 18,3 C 90 % 1012,5 hPa 0,0 l/m 0 min 0 min 0 W/m 29,0 km/h (5 Bft) 95,74 %
05.07.2020 02:50 19,7 C 18,9 C 18,3 C 90 % 1012,6 hPa 0,0 l/m 0 min 0 min 0 W/m 22,5 km/h (4 Bft) 97,87 %
05.07.2020 02:52 19,7 C 18,9 C 18,3 C 90 % 1012,6 hPa 0,0 l/m 0 min 0 min 0 W/m 19,3 km/h (3 Bft) 95,74 %
05.07.2020 02:54 19,7 C 18,9 C 18,3 C 90 % 1012,5 hPa 0,0 l/m 0 min 0 min 0 W/m 22,5 km/h (4 Bft) 97,87 %
05.07.2020 02:56 19,7 C 18,9 C 18,3 C 90 % 1012,6 hPa 0,0 l/m 0 min 0 min 0 W/m 25,7 km/h (4 Bft) 97,87 %
05.07.2020 02:58 19,8 C 18,9 C 18,3 C 90 % 1012,6 hPa 0,0 l/m 0 min 0 min 0 W/m 29,0 km/h (5 Bft) 95,65 %
05.07.2020 03:00 19,8 C 18,9 C 18,3 C 90 % 1012,5 hPa 0,0 l/m 0 min 0 min 0 W/m 25,7 km/h (4 Bft) 97,87 %
05.07.2020 03:02 19,8 C 18,9 C 18,3 C 90 % 1012,5 hPa 0,0 l/m 0 min 0 min 0 W/m 25,7 km/h (4 Bft) 97,87 %
05.07.2020 03:04 19,8 C 18,9 C 18,3 C 90 % 1012,4 hPa 0,0 l/m 0 min 0 min 0 W/m 22,5 km/h (4 Bft) 97,87 %
05.07.2020 03:06 19,8 C 18,9 C 18,3 C 90 % 1012,3 hPa 0,0 l/m 0 min 0 min 0 W/m 25,7 km/h (4 Bft) 97,87 %
05.07.2020 03:08 19,8 C 18,9 C 18,3 C 90 % 1012,2 hPa 0,0 l/m 0 min 0 min 0 W/m 25,7 km/h (4 Bft) 95,74 %
05.07.2020 03:10 19,8 C 18,9 C 18,3 C 90 % 1012,2 hPa 0,0 l/m 0 min 0 min 0 W/m 32,2 km/h (5 Bft) 95,65 %
05.07.2020 03:12 19,8 C 18,9 C 18,3 C 90 % 1012,2 hPa 0,0 l/m 0 min 0 min 0 W/m 29,0 km/h (5 Bft) 97,87 %
05.07.2020 03:14 19,8 C 18,9 C 18,3 C 90 % 1012,2 hPa 0,0 l/m 0 min 0 min 0 W/m 41,8 km/h (6 Bft) 97,87 %
05.07.2020 03:16 19,8 C 18,9 C 18,3 C 90 % 1012,1 hPa 0,0 l/m 0 min 0 min 0 W/m 32,2 km/h (5 Bft) 97,87 %
05.07.2020 03:18 19,8 C 18,9 C 18,3 C 90 % 1012,0 hPa 0,0 l/m 0 min 0 min 0 W/m 32,2 km/h (5 Bft) 95,74 %
05.07.2020 03:20 19,8 C 18,9 C 18,3 C 90 % 1012,0 hPa 0,0 l/m 0 min 0 min 0 W/m 22,5 km/h (4 Bft) 95,65 %
05.07.2020 03:22 19,8 C 18,9 C 18,3 C 90 % 1012,2 hPa 0,0 l/m 0 min 0 min 0 W/m 25,7 km/h (4 Bft) 93,62 %
05.07.2020 03:24 19,8 C 18,9 C 18,3 C 90 % 1012,0 hPa 0,0 l/m 0 min 0 min 0 W/m 22,5 km/h (4 Bft) 91,49 %
05.07.2020 03:26 19,8 C 18,9 C 18,3 C 90 % 1012,0 hPa 0,0 l/m 0 min 0 min 0 W/m 25,7 km/h (4 Bft) 91,49 %
05.07.2020 03:28 19,8 C 18,9 C 18,3 C 89 % 1012,0 hPa 0,0 l/m 0 min 0 min 0 W/m 25,7 km/h (4 Bft) 95,74 %
05.07.2020 03:30 19,8 C 18,9 C 18,3 C 89 % 1012,0 hPa 0,0 l/m 0 min 0 min 0 W/m 22,5 km/h (4 Bft) 95,74 %
05.07.2020 03:32 19,8 C 18,9 C 18,3 C 89 % 1012,0 hPa 0,0 l/m 0 min 0 min 0 W/m 29,0 km/h (5 Bft) 95,65 %
05.07.2020 03:34 19,8 C 18,9 C 18,3 C 89 % 1011,9 hPa 0,0 l/m 0 min 0 min 0 W/m 19,3 km/h (3 Bft) 95,74 %
05.07.2020 03:36 19,8 C 18,9 C 18,3 C 89 % 1011,9 hPa 0,0 l/m 0 min 0 min 0 W/m 16,1 km/h (3 Bft) 95,74 %
05.07.2020 03:38 19,8 C 18,9 C 18,3 C 89 % 1011,9 hPa 0,0 l/m 0 min 0 min 0 W/m 32,2 km/h (5 Bft) 95,74 %
05.07.2020 03:40 19,8 C 18,9 C 18,3 C 89 % 1012,0 hPa 0,0 l/m 0 min 0 min 0 W/m 29,0 km/h (5 Bft) 93,62 %
05.07.2020 03:42 19,8 C 18,9 C 18,3 C 89 % 1011,9 hPa 0,0 l/m 0 min 0 min 0 W/m 22,5 km/h (4 Bft) 91,49 %
05.07.2020 03:44 19,8 C 18,9 C 18,3 C 89 % 1011,9 hPa 0,0 l/m 0 min 0 min 0 W/m 25,7 km/h (4 Bft) 93,62 %
05.07.2020 03:46 19,8 C 18,9 C 18,3 C 89 % 1011,8 hPa 0,0 l/m 0 min 0 min 0 W/m 29,0 km/h (5 Bft) 97,83 %
05.07.2020 03:48 19,8 C 18,9 C 18,3 C 89 % 1011,8 hPa 0,0 l/m 0 min 0 min 0 W/m 38,6 km/h (5 Bft) 95,74 %
05.07.2020 03:50 19,9 C 18,9 C 18,3 C 89 % 1011,8 hPa 0,0 l/m 0 min 0 min 0 W/m 25,7 km/h (4 Bft) 95,74 %
05.07.2020 03:52 19,9 C 18,9 C 18,3 C 89 % 1011,8 hPa 0,0 l/m 0 min 0 min 0 W/m 29,0 km/h (5 Bft) 91,49 %
05.07.2020 03:54 19,9 C 18,3 C 18,3 C 89 % 1011,8 hPa 0,0 l/m 0 min 0 min 0 W/m 12,9 km/h (3 Bft) 93,62 %
05.07.2020 03:56 19,9 C 18,3 C 18,3 C 90 % 1011,8 hPa 0,0 l/m 0 min 0 min 0 W/m 12,9 km/h (3 Bft) 97,83 %
05.07.2020 03:58 19,9 C 17,8 C 17,8 C 90 % 1011,9 hPa 0,0 l/m 0 min 0 min 0 W/m 16,1 km/h (3 Bft) 95,74 %
05.07.2020 04:00 19,9 C 17,8 C 17,8 C 90 % 1012,0 hPa 0,0 l/m 0 min 0 min 0 W/m 16,1 km/h (3 Bft) 95,74 %
05.07.2020 04:02 19,8 C 17,2 C 17,8 C 90 % 1011,9 hPa 0,0 l/m 0 min 2 min 0 W/m 22,5 km/h (4 Bft) 96,15 %
05.07.2020 04:04 19,8 C 17,2 C 17,8 C 91 % 1012,0 hPa 0,0 l/m 0 min 0 min 0 W/m 12,9 km/h (3 Bft) 97,87 %
05.07.2020 04:06 19,7 C 17,2 C 17,8 C 91 % 1011,9 hPa 0,0 l/m 0 min 0 min 0 W/m 12,9 km/h (3 Bft) 95,74 %
05.07.2020 04:08 19,7 C 17,2 C 17,2 C 91 % 1011,9 hPa 0,0 l/m 0 min 0 min 0 W/m 16,1 km/h (3 Bft) 97,83 %
05.07.2020 04:10 19,7 C 17,2 C 17,2 C 91 % 1012,0 hPa 0,0 l/m 0 min 0 min 0 W/m 6,4 km/h (2 Bft) 100,00 %
05.07.2020 04:12 19,6 C 17,2 C 17,2 C 91 % 1012,0 hPa 0,0 l/m 0 min 0 min 0 W/m 12,9 km/h (3 Bft) 97,87 %
05.07.2020 04:14 19,6 C 17,2 C 17,2 C 92 % 1012,0 hPa 0,0 l/m 0 min 2 min 0 W/m 16,1 km/h (3 Bft) 97,87 %
05.07.2020 04:16 19,6 C 17,2 C 17,2 C 92 % 1012,0 hPa 0,0 l/m 0 min 0 min 0 W/m 12,9 km/h (3 Bft) 95,74 %
05.07.2020 04:18 19,5 C 17,2 C 17,2 C 92 % 1012,0 hPa 0,0 l/m 0 min 0 min 0 W/m 19,3 km/h (3 Bft) 97,87 %
05.07.2020 04:20 19,4 C 17,2 C 17,2 C 92 % 1012,0 hPa 0,0 l/m 0 min 2 min 0 W/m 12,9 km/h (3 Bft) 100,00 %
05.07.2020 04:22 19,4 C 17,2 C 17,2 C 92 % 1012,0 hPa 0,0 l/m 0 min 0 min 0 W/m 19,3 km/h (3 Bft) 100,00 %
05.07.2020 04:24 19,3 C 17,2 C 17,2 C 93 % 1012,1 hPa 0,0 l/m 0 min 0 min 0 W/m 19,3 km/h (3 Bft) 97,87 %
05.07.2020 04:26 19,3 C 17,2 C 17,2 C 93 % 1012,0 hPa 0,0 l/m 0 min 0 min 0 W/m 9,7 km/h (2 Bft) 100,00 %
05.07.2020 04:28 19,3 C 17,2 C 17,2 C 93 % 1012,0 hPa 0,0 l/m 0 min 2 min 0 W/m 16,1 km/h (3 Bft) 97,87 %
05.07.2020 04:30 19,2 C 17,2 C 17,2 C 93 % 1012,1 hPa 0,0 l/m 0 min 0 min 0 W/m 16,1 km/h (3 Bft) 100,00 %
05.07.2020 04:32 19,2 C 17,2 C 17,2 C 93 % 1012,0 hPa 0,0 l/m 0 min 0 min 0 W/m 9,7 km/h (2 Bft) 100,00 %
05.07.2020 04:34 19,1 C 17,2 C 17,2 C 94 % 1011,9 hPa 0,0 l/m 0 min 2 min 0 W/m 29,0 km/h (5 Bft) 97,87 %
05.07.2020 04:36 19,1 C 17,2 C 17,2 C 94 % 1012,0 hPa 0,0 l/m 0 min 2 min 0 W/m 25,7 km/h (4 Bft) 100,00 %
05.07.2020 04:38 19,0 C 17,2 C 17,2 C 94 % 1012,0 hPa 0,0 l/m 0 min 2 min 0 W/m 25,7 km/h (4 Bft) 100,00 %
05.07.2020 04:40 19,0 C 16,7 C 17,2 C 94 % 1012,0 hPa 0,0 l/m 0 min 2 min 0 W/m 12,9 km/h (3 Bft) 100,00 %
05.07.2020 04:42 18,9 C 16,7 C 17,2 C 94 % 1012,0 hPa 0,0 l/m 0 min 2 min 0 W/m 19,3 km/h (3 Bft) 97,87 %
05.07.2020 04:44 18,9 C 16,7 C 17,2 C 94 % 1012,0 hPa 0,0 l/m 0 min 0 min 0 W/m 12,9 km/h (3 Bft) 100,00 %
05.07.2020 04:46 18,9 C 16,7 C 17,2 C 95 % 1012,0 hPa 0,0 l/m 0 min 0 min 0 W/m 19,3 km/h (3 Bft) 100,00 %
05.07.2020 04:48 18,8 C 17,2 C 17,2 C 95 % 1012,0 hPa 0,0 l/m 0 min 0 min 0 W/m 16,1 km/h (3 Bft) 100,00 %
05.07.2020 04:50 18,8 C 17,2 C 17,2 C 95 % 1011,9 hPa 0,0 l/m 0 min 0 min 0 W/m 19,3 km/h (3 Bft) 100,00 %
05.07.2020 04:52 18,8 C 17,2 C 17,2 C 95 % 1012,0 hPa 0,0 l/m 0 min 0 min 0 W/m 16,1 km/h (3 Bft) 97,87 %
05.07.2020 04:54 18,8 C 17,2 C 17,2 C 95 % 1012,0 hPa 0,0 l/m 0 min 0 min 0 W/m 16,1 km/h (3 Bft) 100,00 %
05.07.2020 04:56 18,7 C 17,2 C 17,2 C 95 % 1012,0 hPa 0,0 l/m 0 min 0 min 0 W/m 12,9 km/h (3 Bft) 100,00 %
05.07.2020 04:58 18,7 C 17,2 C 17,2 C 95 % 1011,9 hPa 0,0 l/m 0 min 0 min 0 W/m 19,3 km/h (3 Bft) 100,00 %
05.07.2020 05:00 18,7 C 17,2 C 17,2 C 96 % 1011,9 hPa 0,0 l/m 0 min 0 min 0 W/m 19,3 km/h (3 Bft) 100,00 %
05.07.2020 05:02 18,7 C 17,2 C 17,2 C 95 % 1011,9 hPa 0,0 l/m 0 min 0 min 0 W/m 16,1 km/h (3 Bft) 100,00 %
05.07.2020 05:04 18,7 C 17,2 C 17,2 C 96 % 1011,9 hPa 0,0 l/m 0 min 0 min 0 W/m 9,7 km/h (2 Bft) 100,00 %
05.07.2020 05:06 18,7 C 17,2 C 17,2 C 96 % 1011,9 hPa 0,0 l/m 0 min 0 min 0 W/m 19,3 km/h (3 Bft) 100,00 %
05.07.2020 05:08 18,6 C 17,2 C 17,2 C 96 % 1011,9 hPa 0,0 l/m 0 min 0 min 0 W/m 9,7 km/h (2 Bft) 100,00 %
05.07.2020 05:10 18,6 C 17,2 C 17,2 C 96 % 1011,9 hPa 0,0 l/m 0 min 0 min 0 W/m 9,7 km/h (2 Bft) 100,00 %
05.07.2020 05:12 18,6 C 17,2 C 17,2 C 96 % 1011,8 hPa 0,0 l/m 0 min 0 min 0 W/m 0,0 km/h (0 Bft) 100,00 %
05.07.2020 05:14 18,6 C 16,7 C 16,7 C 96 % 1011,9 hPa 0,0 l/m 0 min 0 min 0 W/m 0,0 km/h (0 Bft) 97,87 %
05.07.2020 05:16 18,6 C 16,7 C 16,7 C 96 % 1011,9 hPa 0,0 l/m 0 min 0 min 0 W/m 0,0 km/h (0 Bft) 100,00 %
05.07.2020 05:18 18,6 C 16,7 C 16,7 C 96 % 1011,8 hPa 0,0 l/m 0 min 0 min 0 W/m 12,9 km/h (3 Bft) 100,00 %
05.07.2020 05:20 18,6 C 16,7 C 16,7 C 96 % 1011,9 hPa 0,0 l/m 0 min 0 min 0 W/m 12,9 km/h (3 Bft) 97,87 %
05.07.2020 05:22 18,6 C 16,7 C 17,2 C 96 % 1011,8 hPa 0,0 l/m 0 min 0 min 0 W/m 16,1 km/h (3 Bft) 97,87 %
05.07.2020 05:24 18,6 C 16,7 C 17,2 C 96 % 1011,7 hPa 0,0 l/m 0 min 0 min 0 W/m 0,0 km/h (0 Bft) 100,00 %
05.07.2020 05:26 18,6 C 16,7 C 16,7 C 96 % 1011,8 hPa 0,0 l/m 0 min 0 min 0 W/m 16,1 km/h (3 Bft) 100,00 %
05.07.2020 05:28 18,5 C 17,2 C 17,2 C 97 % 1011,7 hPa 0,0 l/m 0 min 0 min 0 W/m 16,1 km/h (3 Bft) 100,00 %
05.07.2020 05:30 18,5 C 17,2 C 17,2 C 97 % 1011,8 hPa 0,0 l/m 0 min 0 min 0 W/m 16,1 km/h (3 Bft) 97,87 %
05.07.2020 05:32 18,5 C 17,2 C 17,2 C 97 % 1011,8 hPa 0,0 l/m 0 min 0 min 0 W/m 22,5 km/h (4 Bft) 97,87 %
05.07.2020 05:34 18,5 C 17,2 C 17,2 C 97 % 1011,8 hPa 0,0 l/m 0 min 0 min 0 W/m 12,9 km/h (3 Bft) 100,00 %
05.07.2020 05:36 18,4 C 17,2 C 17,2 C 97 % 1011,8 hPa 0,0 l/m 0 min 0 min 0 W/m 19,3 km/h (3 Bft) 97,87 %
05.07.2020 05:38 18,4 C 17,2 C 17,2 C 97 % 1011,7 hPa 0,0 l/m 0 min 0 min 0 W/m 19,3 km/h (3 Bft) 97,87 %
05.07.2020 05:40 18,4 C 17,2 C 17,2 C 97 % 1011,7 hPa 0,0 l/m 0 min 0 min 0 W/m 19,3 km/h (3 Bft) 97,83 %
05.07.2020 05:42 18,4 C 17,2 C 17,2 C 97 % 1011,6 hPa 0,0 l/m 0 min 0 min 0 W/m 6,4 km/h (2 Bft) 97,87 %
05.07.2020 05:44 18,4 C 17,2 C 17,2 C 97 % 1011,6 hPa 0,0 l/m 0 min 0 min 0 W/m 6,4 km/h (2 Bft) 97,87 %
05.07.2020 05:46 18,4 C 17,2 C 17,2 C 97 % 1011,7 hPa 0,0 l/m 0 min 0 min 0 W/m 12,9 km/h (3 Bft) 95,74 %
05.07.2020 05:48 18,4 C 17,2 C 17,2 C 97 % 1011,6 hPa 0,0 l/m 0 min 2 min 0 W/m 0,0 km/h (0 Bft) 97,87 %
05.07.2020 05:50 18,4 C 17,2 C 17,2 C 97 % 1011,6 hPa 0,0 l/m 0 min 2 min 0 W/m 6,4 km/h (2 Bft) 97,87 %
05.07.2020 05:52 18,4 C 17,2 C 17,2 C 97 % 1011,6 hPa 0,0 l/m 0 min 2 min 0 W/m 6,4 km/h (2 Bft) 95,65 %
05.07.2020 05:54 18,4 C 16,7 C 17,2 C 97 % 1011,6 hPa 0,2 l/m 0 min 0 min 0 W/m 6,4 km/h (2 Bft) 95,74 %
05.07.2020 05:56 18,4 C 16,7 C 16,7 C 97 % 1011,5 hPa 0,0 l/m 0 min 2 min 0 W/m 6,4 km/h (2 Bft) 97,87 %
05.07.2020 05:58 18,4 C 16,7 C 16,7 C 97 % 1011,6 hPa 0,0 l/m 0 min 2 min 0 W/m 16,1 km/h (3 Bft) 97,87 %
05.07.2020 06:00 18,4 C 16,7 C 16,7 C 97 % 1011,7 hPa 0,0 l/m 0 min 0 min 0 W/m 0,0 km/h (0 Bft) 97,87 %
05.07.2020 06:02 18,4 C 16,7 C 16,7 C 97 % 1011,7 hPa 0,0 l/m 0 min 0 min 0 W/m 6,4 km/h (2 Bft) 93,62 %
05.07.2020 06:04 18,4 C 16,7 C 16,7 C 97 % 1011,6 hPa 0,0 l/m 0 min 0 min 2 W/m 3,2 km/h (1 Bft) 91,30 %
05.07.2020 06:08 18,4 C 16,7 C 16,7 C 97 % 1011,7 hPa 0,0 l/m 0 min 0 min 0 W/m 16,1 km/h (3 Bft) 94,68 %
05.07.2020 06:10 18,4 C 16,7 C 16,7 C 97 % 1011,7 hPa 0,0 l/m 0 min 0 min 0 W/m 6,4 km/h (2 Bft) 93,62 %
05.07.2020 06:12 18,4 C 16,7 C 16,7 C 97 % 1011,6 hPa 0,0 l/m 0 min 0 min 2 W/m 6,4 km/h (2 Bft) 95,74 %
05.07.2020 06:14 18,4 C 16,7 C 16,7 C 97 % 1011,6 hPa 0,0 l/m 0 min 0 min 0 W/m 22,5 km/h (4 Bft) 93,62 %
05.07.2020 06:16 18,4 C 16,7 C 16,7 C 97 % 1011,6 hPa 0,0 l/m 0 min 0 min 4 W/m 12,9 km/h (3 Bft) 95,65 %
05.07.2020 06:18 18,4 C 16,7 C 17,2 C 97 % 1011,6 hPa 0,0 l/m 0 min 0 min 3 W/m 12,9 km/h (3 Bft) 95,74 %
05.07.2020 06:20 18,4 C 16,7 C 17,2 C 97 % 1011,6 hPa 0,0 l/m 0 min 0 min 5 W/m 19,3 km/h (3 Bft) 93,62 %
05.07.2020 06:22 18,4 C 16,7 C 17,2 C 97 % 1011,6 hPa 0,0 l/m 0 min 2 min 7 W/m 12,9 km/h (3 Bft) 95,74 %
05.07.2020 06:24 18,4 C 16,7 C 17,2 C 97 % 1011,6 hPa 0,0 l/m 0 min 0 min 7 W/m 25,7 km/h (4 Bft) 95,74 %
05.07.2020 06:26 18,4 C 16,7 C 17,2 C 98 % 1011,6 hPa 0,0 l/m 0 min 0 min 6 W/m 12,9 km/h (3 Bft) 93,62 %
05.07.2020 06:28 18,4 C 16,7 C 17,2 C 98 % 1011,6 hPa 0,0 l/m 0 min 0 min 5 W/m 22,5 km/h (4 Bft) 95,65 %
05.07.2020 06:30 18,4 C 16,7 C 17,2 C 98 % 1011,6 hPa 0,0 l/m 0 min 0 min 6 W/m 12,9 km/h (3 Bft) 95,74 %
05.07.2020 06:32 18,4 C 16,7 C 17,2 C 98 % 1011,6 hPa 0,0 l/m 0 min 2 min 6 W/m 3,2 km/h (1 Bft) 95,74 %
05.07.2020 06:34 18,4 C 16,7 C 17,2 C 98 % 1011,7 hPa 0,0 l/m 0 min 2 min 5 W/m 0,0 km/h (0 Bft) 97,87 %
05.07.2020 06:36 18,4 C 16,7 C 16,7 C 98 % 1011,6 hPa 0,2 l/m 0 min 2 min 7 W/m 3,2 km/h (1 Bft) 93,62 %
05.07.2020 06:38 18,4 C 16,7 C 16,7 C 98 % 1011,6 hPa 0,0 l/m 0 min 0 min 8 W/m 6,4 km/h (2 Bft) 97,87 %
05.07.2020 06:40 18,4 C 16,7 C 16,7 C 98 % 1011,8 hPa 0,0 l/m 0 min 0 min 10 W/m 3,2 km/h (1 Bft) 97,83 %
05.07.2020 06:42 18,4 C 16,7 C 16,7 C 98 % 1011,7 hPa 0,0 l/m 0 min 0 min 12 W/m 0,0 km/h (0 Bft) 97,87 %
05.07.2020 06:44 18,4 C 16,7 C 16,7 C 98 % 1011,7 hPa 0,0 l/m 0 min 0 min 13 W/m 3,2 km/h (1 Bft) 97,87 %
05.07.2020 06:46 18,4 C 16,7 C 16,7 C 98 % 1011,7 hPa 0,0 l/m 0 min 0 min 11 W/m 16,1 km/h (3 Bft) 97,92 %
05.07.2020 06:48 18,4 C 16,7 C 16,7 C 98 % 1011,8 hPa 0,0 l/m 0 min 0 min 12 W/m 6,4 km/h (2 Bft) 97,87 %
05.07.2020 06:50 18,4 C 16,7 C 16,7 C 98 % 1011,8 hPa 0,0 l/m 0 min 0 min 12 W/m 6,4 km/h (2 Bft) 97,83 %
05.07.2020 06:52 18,4 C 16,7 C 16,7 C 98 % 1011,8 hPa 0,0 l/m 0 min 0 min 13 W/m 0,0 km/h (0 Bft) 100,00 %
05.07.2020 06:54 18,4 C 16,7 C 16,7 C 98 % 1011,7 hPa 0,0 l/m 0 min 0 min 12 W/m 12,9 km/h (3 Bft) 95,74 %
05.07.2020 06:56 18,4 C 16,7 C 16,7 C 98 % 1011,8 hPa 0,0 l/m 0 min 0 min 12 W/m 3,2 km/h (1 Bft) 95,74 %
05.07.2020 06:58 18,4 C 16,7 C 16,7 C 98 % 1011,8 hPa 0,0 l/m 0 min 0 min 12 W/m 3,2 km/h (1 Bft) 97,87 %
05.07.2020 07:00 18,4 C 17,2 C 17,2 C 98 % 1011,8 hPa 0,0 l/m 0 min 0 min 14 W/m 3,2 km/h (1 Bft) 97,87 %
05.07.2020 07:02 18,4 C 17,2 C 17,2 C 98 % 1011,8 hPa 0,2 l/m 0 min 0 min 13 W/m 6,4 km/h (2 Bft) 95,65 %
05.07.2020 07:04 18,4 C 17,2 C 17,2 C 98 % 1011,8 hPa 0,0 l/m 0 min 0 min 17 W/m 0,0 km/h (0 Bft) 93,62 %
05.07.2020 07:06 18,4 C 17,2 C 17,2 C 98 % 1011,8 hPa 0,0 l/m 0 min 0 min 27 W/m 3,2 km/h (1 Bft) 97,87 %
05.07.2020 07:08 18,4 C 17,2 C 17,2 C 98 % 1011,8 hPa 0,0 l/m 0 min 0 min 21 W/m 0,0 km/h (0 Bft) 97,87 %
05.07.2020 07:10 18,4 C 17,2 C 17,2 C 98 % 1011,8 hPa 0,0 l/m 0 min 0 min 20 W/m 0,0 km/h (0 Bft) 97,87 %
05.07.2020 07:12 18,4 C 17,2 C 17,2 C 98 % 1011,8 hPa 0,0 l/m 0 min 0 min 23 W/m 0,0 km/h (0 Bft) 95,74 %
05.07.2020 07:14 18,4 C 17,2 C 17,2 C 98 % 1011,8 hPa 0,0 l/m 0 min 0 min 20 W/m 0,0 km/h (0 Bft) 97,83 %
05.07.2020 07:16 18,4 C 17,2 C 17,2 C 98 % 1011,8 hPa 0,0 l/m 0 min 0 min 26 W/m 6,4 km/h (2 Bft) 97,87 %
05.07.2020 07:18 18,4 C 17,2 C 17,2 C 98 % 1011,8 hPa 0,0 l/m 0 min 0 min 36 W/m 3,2 km/h (1 Bft) 97,87 %
05.07.2020 07:20 18,4 C 17,2 C 17,2 C 98 % 1011,8 hPa 0,0 l/m 0 min 0 min 42 W/m 3,2 km/h (1 Bft) 95,74 %
05.07.2020 07:22 18,4 C 17,2 C 17,2 C 98 % 1011,8 hPa 0,0 l/m 0 min 0 min 48 W/m 0,0 km/h (0 Bft) 97,87 %
05.07.2020 07:24 18,4 C 17,2 C 17,2 C 98 % 1011,8 hPa 0,0 l/m 0 min 0 min 52 W/m 3,2 km/h (1 Bft) 97,87 %
05.07.2020 07:26 18,4 C 17,2 C 17,2 C 98 % 1011,8 hPa 0,0 l/m 0 min 0 min 52 W/m 6,4 km/h (2 Bft) 95,65 %
05.07.2020 07:28 18,4 C 17,2 C 17,2 C 98 % 1011,8 hPa 0,0 l/m 0 min 0 min 49 W/m 19,3 km/h (3 Bft) 97,87 %
05.07.2020 07:30 18,4 C 17,2 C 17,2 C 98 % 1011,8 hPa 0,0 l/m 0 min 0 min 40 W/m 6,4 km/h (2 Bft) 97,87 %
05.07.2020 07:32 18,5 C 17,2 C 17,2 C 98 % 1011,8 hPa 0,0 l/m 0 min 0 min 43 W/m 3,2 km/h (1 Bft) 97,87 %
05.07.2020 07:34 18,4 C 17,2 C 17,2 C 98 % 1011,8 hPa 0,0 l/m 0 min 0 min 45 W/m 19,3 km/h (3 Bft) 97,87 %
05.07.2020 07:36 18,4 C 17,2 C 17,2 C 98 % 1011,7 hPa 0,0 l/m 0 min 0 min 42 W/m 0,0 km/h (0 Bft) 97,87 %
05.07.2020 07:38 18,4 C 17,2 C 17,2 C 98 % 1011,7 hPa 0,0 l/m 0 min 0 min 44 W/m 12,9 km/h (3 Bft) 97,83 %
05.07.2020 07:40 18,4 C 17,2 C 17,2 C 98 % 1011,7 hPa 0,0 l/m 0 min 0 min 34 W/m 16,1 km/h (3 Bft) 97,87 %
05.07.2020 07:42 18,4 C 17,2 C 17,2 C 98 % 1011,7 hPa 0,0 l/m 0 min 0 min 25 W/m 6,4 km/h (2 Bft) 97,87 %
05.07.2020 07:44 18,4 C 17,2 C 17,2 C 98 % 1011,8 hPa 0,0 l/m 0 min 0 min 25 W/m 6,4 km/h (2 Bft) 97,87 %
05.07.2020 07:46 18,4 C 17,2 C 17,2 C 98 % 1011,7 hPa 0,0 l/m 0 min 0 min 24 W/m 19,3 km/h (3 Bft) 97,87 %
05.07.2020 07:48 18,4 C 17,2 C 17,2 C 98 % 1011,7 hPa 0,0 l/m 0 min 0 min 30 W/m 16,1 km/h (3 Bft) 97,87 %
05.07.2020 07:50 18,4 C 17,2 C 17,2 C 98 % 1011,8 hPa 0,0 l/m 0 min 0 min 40 W/m 6,4 km/h (2 Bft) 97,83 %
05.07.2020 07:52 18,4 C 17,2 C 17,2 C 98 % 1011,8 hPa 0,0 l/m 0 min 0 min 42 W/m 12,9 km/h (3 Bft) 100,00 %
05.07.2020 07:54 18,4 C 17,2 C 17,2 C 98 % 1011,8 hPa 0,0 l/m 0 min 0 min 45 W/m 16,1 km/h (3 Bft) 100,00 %
05.07.2020 07:56 18,4 C 17,2 C 17,2 C 98 % 1011,8 hPa 0,0 l/m 0 min 0 min 53 W/m 12,9 km/h (3 Bft) 100,00 %
05.07.2020 07:58 18,4 C 17,2 C 17,2 C 98 % 1011,8 hPa 0,0 l/m 0 min 0 min 57 W/m 16,1 km/h (3 Bft) 97,87 %
05.07.2020 08:00 18,4 C 17,2 C 17,2 C 98 % 1011,9 hPa 0,0 l/m 0 min 0 min 46 W/m 12,9 km/h (3 Bft) 100,00 %
05.07.2020 08:02 18,4 C 17,2 C 17,2 C 98 % 1011,9 hPa 0,0 l/m 0 min 0 min 37 W/m 9,7 km/h (2 Bft) 100,00 %
05.07.2020 08:04 18,4 C 17,2 C 17,2 C 98 % 1011,9 hPa 0,0 l/m 0 min 0 min 43 W/m 16,1 km/h (3 Bft) 100,00 %
05.07.2020 08:06 18,4 C 17,2 C 17,2 C 98 % 1011,9 hPa 0,0 l/m 0 min 0 min 50 W/m 16,1 km/h (3 Bft) 100,00 %
05.07.2020 08:08 18,4 C 17,2 C 17,2 C 98 % 1012,0 hPa 0,0 l/m 0 min 0 min 57 W/m 6,4 km/h (2 Bft) 97,87 %
05.07.2020 08:10 18,4 C 17,2 C 17,2 C 98 % 1011,9 hPa 0,0 l/m 0 min 0 min 42 W/m 12,9 km/h (3 Bft) 100,00 %
05.07.2020 08:12 18,4 C 17,2 C 17,2 C 98 % 1011,9 hPa 0,0 l/m 0 min 0 min 43 W/m 16,1 km/h (3 Bft) 100,00 %
05.07.2020 08:14 18,4 C 17,2 C 17,2 C 98 % 1011,9 hPa 0,0 l/m 0 min 0 min 54 W/m 9,7 km/h (2 Bft) 100,00 %
05.07.2020 08:16 18,4 C 17,8 C 17,2 C 98 % 1011,9 hPa 0,0 l/m 0 min 0 min 73 W/m 16,1 km/h (3 Bft) 100,00 %
05.07.2020 08:18 18,4 C 17,8 C 17,2 C 98 % 1011,8 hPa 0,0 l/m 0 min 0 min 94 W/m 19,3 km/h (3 Bft) 100,00 %
05.07.2020 08:20 18,5 C 17,8 C 17,8 C 98 % 1011,9 hPa 0,0 l/m 0 min 0 min 87 W/m 12,9 km/h (3 Bft) 100,00 %
05.07.2020 08:22 18,5 C 17,8 C 17,8 C 98 % 1011,9 hPa 0,0 l/m 0 min 0 min 75 W/m 12,9 km/h (3 Bft) 100,00 %
05.07.2020 08:24 18,5 C 17,8 C 17,8 C 98 % 1011,9 hPa 0,0 l/m 0 min 0 min 61 W/m 12,9 km/h (3 Bft) 97,83 %
05.07.2020 08:26 18,6 C 17,8 C 17,8 C 98 % 1012,0 hPa 0,0 l/m 0 min 0 min 57 W/m 3,2 km/h (1 Bft) 100,00 %
05.07.2020 08:28 18,6 C 17,8 C 17,8 C 98 % 1012,0 hPa 0,0 l/m 0 min 0 min 44 W/m 16,1 km/h (3 Bft) 100,00 %
05.07.2020 08:30 18,6 C 17,8 C 17,8 C 99 % 1012,0 hPa 0,0 l/m 0 min 0 min 43 W/m 9,7 km/h (2 Bft) 97,87 %
05.07.2020 08:32 18,6 C 17,8 C 17,8 C 99 % 1012,0 hPa 0,0 l/m 0 min 0 min 70 W/m 16,1 km/h (3 Bft) 100,00 %
05.07.2020 08:34 18,6 C 17,8 C 17,8 C 99 % 1012,0 hPa 0,0 l/m 0 min 0 min 88 W/m 22,5 km/h (4 Bft) 95,74 %
05.07.2020 08:36 18,6 C 17,8 C 17,8 C 99 % 1012,0 hPa 0,0 l/m 0 min 0 min 109 W/m 12,9 km/h (3 Bft) 100,00 %
05.07.2020 08:38 18,7 C 17,8 C 17,8 C 99 % 1011,9 hPa 0,0 l/m 0 min 0 min 100 W/m 25,7 km/h (4 Bft) 100,00 %
05.07.2020 08:40 18,7 C 17,8 C 17,8 C 98 % 1012,0 hPa 0,0 l/m 0 min 0 min 97 W/m 22,5 km/h (4 Bft) 100,00 %
05.07.2020 08:42 18,7 C 18,3 C 17,8 C 98 % 1012,0 hPa 0,0 l/m 0 min 0 min 97 W/m 0,0 km/h (0 Bft) 97,87 %
05.07.2020 08:44 18,7 C 18,3 C 17,8 C 98 % 1012,0 hPa 0,0 l/m 0 min 0 min 85 W/m 19,3 km/h (3 Bft) 97,87 %
05.07.2020 08:46 18,7 C 18,3 C 17,8 C 98 % 1012,0 hPa 0,0 l/m 0 min 0 min 94 W/m 19,3 km/h (3 Bft) 95,74 %
05.07.2020 08:48 18,8 C 18,3 C 17,8 C 98 % 1011,9 hPa 0,0 l/m 0 min 0 min 97 W/m 19,3 km/h (3 Bft) 95,65 %
05.07.2020 08:50 18,8 C 18,3 C 17,8 C 98 % 1012,0 hPa 0,0 l/m 0 min 0 min 100 W/m 12,9 km/h (3 Bft) 91,49 %
05.07.2020 08:52 18,8 C 18,3 C 17,8 C 98 % 1012,0 hPa 0,0 l/m 0 min 0 min 102 W/m 12,9 km/h (3 Bft) 95,74 %
05.07.2020 08:54 18,8 C 18,3 C 17,8 C 98 % 1012,1 hPa 0,0 l/m 0 min 0 min 85 W/m 22,5 km/h (4 Bft) 93,62 %
05.07.2020 08:56 18,8 C 17,8 C 17,8 C 98 % 1012,1 hPa 0,0 l/m 0 min 0 min 66 W/m 16,1 km/h (3 Bft) 91,49 %
05.07.2020 08:58 18,9 C 17,8 C 17,8 C 98 % 1012,1 hPa 0,0 l/m 0 min 0 min 73 W/m 12,9 km/h (3 Bft) 95,74 %
05.07.2020 09:00 18,9 C 17,8 C 17,8 C 98 % 1012,0 hPa 0,0 l/m 0 min 2 min 90 W/m 19,3 km/h (3 Bft) 95,65 %
05.07.2020 09:02 18,9 C 17,8 C 17,8 C 98 % 1012,0 hPa 0,0 l/m 0 min 2 min 99 W/m 22,5 km/h (4 Bft) 95,74 %
05.07.2020 09:04 18,9 C 17,8 C 17,8 C 98 % 1012,0 hPa 0,0 l/m 0 min 2 min 131 W/m 22,5 km/h (4 Bft) 95,74 %
05.07.2020 09:06 19,0 C 18,3 C 17,8 C 98 % 1012,0 hPa 0,0 l/m 0 min 2 min 158 W/m 12,9 km/h (3 Bft) 95,74 %
05.07.2020 09:08 19,0 C 18,3 C 18,3 C 98 % 1012,1 hPa 0,0 l/m 0 min 0 min 175 W/m 16,1 km/h (3 Bft) 95,74 %
05.07.2020 09:10 19,1 C 17,8 C 18,3 C 98 % 1012,1 hPa 0,0 l/m 0 min 0 min 113 W/m 22,5 km/h (4 Bft) 95,65 %
05.07.2020 09:12 19,1 C 17,8 C 17,8 C 98 % 1012,1 hPa 0,0 l/m 0 min 0 min 98 W/m 22,5 km/h (4 Bft) 93,62 %
05.07.2020 09:14 19,1 C 17,8 C 17,8 C 98 % 1012,1 hPa 0,0 l/m 0 min 0 min 137 W/m 25,7 km/h (4 Bft) 95,74 %
05.07.2020 09:16 19,1 C 17,8 C 17,8 C 98 % 1012,1 hPa 0,0 l/m 0 min 0 min 106 W/m 12,9 km/h (3 Bft) 95,74 %
05.07.2020 09:18 19,2 C 17,8 C 17,8 C 98 % 1012,1 hPa 0,0 l/m 0 min 0 min 137 W/m 25,7 km/h (4 Bft) 93,62 %
05.07.2020 09:20 19,2 C 17,8 C 17,8 C 98 % 1012,1 hPa 0,0 l/m 0 min 0 min 110 W/m 22,5 km/h (4 Bft) 93,62 %
05.07.2020 09:22 19,2 C 17,8 C 17,8 C 98 % 1012,0 hPa 0,0 l/m 0 min 2 min 99 W/m 22,5 km/h (4 Bft) 95,65 %
05.07.2020 09:24 19,2 C 17,8 C 17,8 C 98 % 1012,1 hPa 0,0 l/m 0 min 0 min 106 W/m 25,7 km/h (4 Bft) 95,74 %
05.07.2020 09:26 19,2 C 17,8 C 17,8 C 98 % 1012,0 hPa 0,0 l/m 0 min 2 min 134 W/m 19,3 km/h (3 Bft) 95,74 %
05.07.2020 09:28 19,2 C 18,3 C 17,8 C 98 % 1012,1 hPa 0,0 l/m 0 min 2 min 131 W/m 12,9 km/h (3 Bft) 95,74 %
05.07.2020 09:30 19,2 C 17,8 C 17,8 C 98 % 1012,0 hPa 0,0 l/m 0 min 2 min 112 W/m 19,3 km/h (3 Bft) 91,49 %
05.07.2020 09:32 19,2 C 17,8 C 17,8 C 98 % 1012,0 hPa 0,0 l/m 0 min 2 min 106 W/m 19,3 km/h (3 Bft) 97,87 %
05.07.2020 09:34 19,2 C 17,8 C 17,8 C 98 % 1012,1 hPa 0,0 l/m 0 min 2 min 125 W/m 29,0 km/h (5 Bft) 100,00 %
05.07.2020 09:36 19,2 C 17,8 C 17,8 C 98 % 1012,1 hPa 0,0 l/m 0 min 2 min 103 W/m 16,1 km/h (3 Bft) 97,87 %
05.07.2020 09:38 19,2 C 17,8 C 17,8 C 98 % 1012,1 hPa 0,0 l/m 0 min 2 min 118 W/m 16,1 km/h (3 Bft) 95,74 %
05.07.2020 09:40 19,2 C 17,8 C 17,8 C 98 % 1012,0 hPa 0,0 l/m 0 min 2 min 122 W/m 25,7 km/h (4 Bft) 100,00 %
05.07.2020 09:42 19,2 C 17,8 C 17,8 C 98 % 1012,0 hPa 0,0 l/m 0 min 0 min 109 W/m 22,5 km/h (4 Bft) 100,00 %
05.07.2020 09:44 19,2 C 18,3 C 17,8 C 98 % 1012,1 hPa 0,0 l/m 0 min 0 min 127 W/m 12,9 km/h (3 Bft) 100,00 %
05.07.2020 09:46 19,2 C 18,3 C 18,3 C 98 % 1012,1 hPa 0,0 l/m 0 min 0 min 232 W/m 19,3 km/h (3 Bft) 100,00 %
05.07.2020 09:48 19,3 C 20,0 C 19,4 C 98 % 1012,0 hPa 0,0 l/m 2 min 0 min 306 W/m 19,3 km/h (3 Bft) 97,87 %
05.07.2020 09:50 19,4 C 20,6 C 21,1 C 98 % 1012,0 hPa 0,0 l/m 2 min 0 min 697 W/m 19,3 km/h (3 Bft) 100,00 %
05.07.2020 09:52 19,4 C 20,6 C 21,1 C 98 % 1012,2 hPa 0,0 l/m 2 min 0 min 438 W/m 12,9 km/h (3 Bft) 97,87 %
05.07.2020 09:54 19,5 C 20,0 C 20,0 C 98 % 1012,1 hPa 0,0 l/m 0 min 0 min 206 W/m 19,3 km/h (3 Bft) 100,00 %
05.07.2020 09:56 19,6 C 19,4 C 19,4 C 98 % 1012,1 hPa 0,0 l/m 0 min 0 min 178 W/m 12,9 km/h (3 Bft) 100,00 %
05.07.2020 09:58 19,6 C 19,4 C 19,4 C 98 % 1012,1 hPa 0,0 l/m 0 min 0 min 189 W/m 29,0 km/h (5 Bft) 100,00 %
05.07.2020 10:00 19,6 C 19,4 C 19,4 C 98 % 1012,0 hPa 0,0 l/m 0 min 0 min 219 W/m 32,2 km/h (5 Bft) 97,87 %
05.07.2020 10:02 19,6 C 20,0 C 19,4 C 98 % 1012,2 hPa 0,0 l/m 0 min 0 min 248 W/m 25,7 km/h (4 Bft) 100,00 %
05.07.2020 10:04 19,6 C 20,6 C 20,0 C 98 % 1012,1 hPa 0,0 l/m 0 min 0 min 298 W/m 22,5 km/h (4 Bft) 100,00 %
05.07.2020 10:06 19,7 C 21,1 C 21,1 C 98 % 1012,1 hPa 0,0 l/m 0 min 0 min 299 W/m 35,4 km/h (5 Bft) 100,00 %
05.07.2020 10:08 19,8 C 21,1 C 21,1 C 98 % 1012,2 hPa 0,0 l/m 0 min 0 min 294 W/m 45,1 km/h (6 Bft) 100,00 %
05.07.2020 10:10 19,9 C 20,6 C 21,1 C 98 % 1012,2 hPa 0,0 l/m 0 min 0 min 277 W/m 29,0 km/h (5 Bft) 100,00 %
05.07.2020 10:12 20,1 C 21,1 C 21,7 C 97 % 1012,1 hPa 0,0 l/m 2 min 0 min 322 W/m 19,3 km/h (3 Bft) 100,00 %
05.07.2020 10:14 20,1 C 21,1 C 21,1 C 97 % 1012,3 hPa 0,0 l/m 2 min 0 min 348 W/m 22,5 km/h (4 Bft) 100,00 %
05.07.2020 10:16 20,2 C 21,1 C 21,1 C 97 % 1012,1 hPa 0,0 l/m 2 min 0 min 367 W/m 29,0 km/h (5 Bft) 100,00 %
05.07.2020 10:18 20,3 C 20,6 C 20,6 C 96 % 1012,3 hPa 0,0 l/m 0 min 0 min 296 W/m 32,2 km/h (5 Bft) 97,87 %
05.07.2020 10:20 20,3 C 20,6 C 20,0 C 96 % 1012,1 hPa 0,0 l/m 0 min 0 min 230 W/m 29,0 km/h (5 Bft) 97,83 %
05.07.2020 10:22 20,3 C 20,6 C 20,0 C 96 % 1012,1 hPa 0,0 l/m 0 min 0 min 242 W/m 29,0 km/h (5 Bft) 97,87 %
05.07.2020 10:24 20,4 C 21,1 C 20,0 C 95 % 1012,2 hPa 0,0 l/m 0 min 0 min 276 W/m 16,1 km/h (3 Bft) 97,87 %
05.07.2020 10:26 20,4 C 20,6 C 20,0 C 95 % 1012,4 hPa 0,0 l/m 2 min 0 min 336 W/m 51,5 km/h (7 Bft) 97,87 %
05.07.2020 10:28 20,6 C 20,6 C 20,0 C 94 % 1012,2 hPa 0,0 l/m 0 min 0 min 282 W/m 22,5 km/h (4 Bft) 97,87 %
05.07.2020 10:30 20,6 C 20,0 C 20,0 C 93 % 1012,2 hPa 0,0 l/m 0 min 0 min 276 W/m 38,6 km/h (5 Bft) 97,83 %
05.07.2020 10:32 20,6 C 20,6 C 20,0 C 93 % 1012,1 hPa 0,0 l/m 0 min 0 min 268 W/m 35,4 km/h (5 Bft) 95,74 %
05.07.2020 10:34 20,7 C 20,6 C 20,0 C 92 % 1012,1 hPa 0,0 l/m 0 min 0 min 322 W/m 22,5 km/h (4 Bft) 97,87 %
05.07.2020 10:36 20,7 C 21,1 C 20,0 C 92 % 1012,1 hPa 0,0 l/m 0 min 0 min 327 W/m 25,7 km/h (4 Bft) 97,87 %
05.07.2020 10:38 20,8 C 21,1 C 20,0 C 91 % 1012,1 hPa 0,0 l/m 0 min 0 min 323 W/m 16,1 km/h (3 Bft) 97,87 %
05.07.2020 10:40 20,9 C 21,7 C 20,6 C 91 % 1012,1 hPa 0,0 l/m 2 min 0 min 343 W/m 29,0 km/h (5 Bft) 97,87 %
05.07.2020 10:42 20,9 C 21,1 C 20,6 C 91 % 1012,0 hPa 0,0 l/m 0 min 0 min 333 W/m 45,1 km/h (6 Bft) 97,83 %
05.07.2020 10:44 21,0 C 21,7 C 20,6 C 90 % 1012,0 hPa 0,0 l/m 0 min 0 min 332 W/m 25,7 km/h (4 Bft) 93,62 %
05.07.2020 10:46 21,1 C 22,2 C 20,6 C 90 % 1012,0 hPa 0,0 l/m 2 min 0 min 373 W/m 22,5 km/h (4 Bft) 97,87 %
05.07.2020 10:48 21,2 C 22,2 C 20,6 C 90 % 1012,0 hPa 0,0 l/m 0 min 0 min 346 W/m 25,7 km/h (4 Bft) 95,74 %
05.07.2020 10:50 21,2 C 22,2 C 20,6 C 89 % 1012,1 hPa 0,0 l/m 0 min 0 min 337 W/m 35,4 km/h (5 Bft) 97,87 %
05.07.2020 10:52 21,3 C 22,2 C 20,6 C 89 % 1012,1 hPa 0,0 l/m 0 min 0 min 256 W/m 25,7 km/h (4 Bft) 97,87 %
05.07.2020 10:54 21,3 C 21,7 C 20,0 C 88 % 1012,0 hPa 0,0 l/m 0 min 0 min 251 W/m 25,7 km/h (4 Bft) 97,83 %
05.07.2020 10:56 21,3 C 21,7 C 20,0 C 88 % 1012,1 hPa 0,0 l/m 0 min 0 min 266 W/m 32,2 km/h (5 Bft) 97,87 %
05.07.2020 10:58 21,3 C 21,7 C 20,0 C 87 % 1011,9 hPa 0,0 l/m 0 min 0 min 296 W/m 35,4 km/h (5 Bft) 97,87 %
05.07.2020 11:00 21,4 C 21,7 C 20,0 C 87 % 1012,1 hPa 0,0 l/m 0 min 0 min 260 W/m 29,0 km/h (5 Bft) 97,87 %
05.07.2020 11:02 21,4 C 21,7 C 20,0 C 87 % 1011,9 hPa 0,0 l/m 0 min 0 min 290 W/m 22,5 km/h (4 Bft) 97,87 %
05.07.2020 11:04 21,4 C 21,7 C 20,0 C 86 % 1011,9 hPa 0,0 l/m 0 min 0 min 242 W/m 25,7 km/h (4 Bft) 97,87 %
05.07.2020 11:06 21,4 C 21,7 C 20,0 C 86 % 1011,9 hPa 0,0 l/m 0 min 0 min 172 W/m 22,5 km/h (4 Bft) 97,83 %
05.07.2020 11:08 21,4 C 21,7 C 20,0 C 87 % 1011,9 hPa 0,0 l/m 0 min 0 min 161 W/m 19,3 km/h (3 Bft) 95,74 %
05.07.2020 11:10 21,4 C 21,1 C 20,0 C 87 % 1011,9 hPa 0,0 l/m 0 min 0 min 124 W/m 16,1 km/h (3 Bft) 100,00 %
05.07.2020 11:12 21,4 C 21,1 C 20,0 C 87 % 1012,0 hPa 0,0 l/m 0 min 0 min 135 W/m 45,1 km/h (6 Bft) 95,74 %
05.07.2020 11:14 21,4 C 21,1 C 20,0 C 87 % 1011,9 hPa 0,0 l/m 0 min 0 min 135 W/m 12,9 km/h (3 Bft) 100,00 %
05.07.2020 11:16 21,4 C 21,1 C 20,0 C 86 % 1011,9 hPa 0,0 l/m 0 min 0 min 151 W/m 41,8 km/h (6 Bft) 100,00 %
05.07.2020 11:18 21,4 C 21,1 C 20,0 C 86 % 1012,0 hPa 0,0 l/m 0 min 0 min 161 W/m 38,6 km/h (5 Bft) 97,83 %
05.07.2020 11:20 21,4 C 21,1 C 20,0 C 86 % 1012,0 hPa 0,0 l/m 0 min 0 min 202 W/m 19,3 km/h (3 Bft) 97,87 %
05.07.2020 11:22 21,4 C 21,7 C 20,0 C 86 % 1012,0 hPa 0,0 l/m 0 min 0 min 223 W/m 35,4 km/h (5 Bft) 95,74 %
05.07.2020 11:24 21,4 C 21,7 C 20,0 C 86 % 1012,0 hPa 0,0 l/m 0 min 0 min 276 W/m 25,7 km/h (4 Bft) 97,87 %
05.07.2020 11:26 21,4 C 21,7 C 20,0 C 86 % 1012,2 hPa 0,0 l/m 0 min 0 min 306 W/m 29,0 km/h (5 Bft) 95,74 %
05.07.2020 11:28 21,4 C 22,2 C 20,0 C 85 % 1012,0 hPa 0,0 l/m 0 min 0 min 328 W/m 29,0 km/h (5 Bft) 97,83 %
05.07.2020 11:30 21,4 C 21,7 C 20,0 C 85 % 1012,3 hPa 0,0 l/m 0 min 0 min 257 W/m 22,5 km/h (4 Bft) 95,74 %
05.07.2020 11:32 21,5 C 22,2 C 20,0 C 85 % 1012,1 hPa 0,0 l/m 0 min 0 min 305 W/m 29,0 km/h (5 Bft) 97,87 %
05.07.2020 11:34 21,5 C 22,2 C 20,6 C 86 % 1011,9 hPa 0,0 l/m 0 min 0 min 301 W/m 29,0 km/h (5 Bft) 97,87 %
05.07.2020 11:36 21,5 C 22,2 C 20,6 C 85 % 1012,0 hPa 0,0 l/m 0 min 0 min 287 W/m 22,5 km/h (4 Bft) 95,74 %
05.07.2020 11:38 21,6 C 22,2 C 20,6 C 86 % 1012,0 hPa 0,0 l/m 0 min 0 min 301 W/m 25,7 km/h (4 Bft) 95,74 %
05.07.2020 11:40 21,6 C 22,2 C 20,6 C 86 % 1012,0 hPa 0,0 l/m 0 min 0 min 290 W/m 29,0 km/h (5 Bft) 93,48 %
05.07.2020 11:42 21,6 C 22,2 C 20,6 C 86 % 1012,0 hPa 0,0 l/m 0 min 0 min 259 W/m 22,5 km/h (4 Bft) 97,87 %
05.07.2020 11:44 21,6 C 22,2 C 20,0 C 86 % 1012,0 hPa 0,0 l/m 0 min 0 min 242 W/m 22,5 km/h (4 Bft) 97,87 %
05.07.2020 11:46 21,6 C 21,7 C 20,0 C 86 % 1011,9 hPa 0,0 l/m 0 min 0 min 240 W/m 19,3 km/h (3 Bft) 95,74 %
05.07.2020 11:48 21,6 C 21,7 C 20,6 C 86 % 1012,0 hPa 0,0 l/m 0 min 0 min 239 W/m 19,3 km/h (3 Bft) 95,74 %
05.07.2020 11:50 21,6 C 21,7 C 20,6 C 86 % 1012,0 hPa 0,0 l/m 0 min 0 min 247 W/m 38,6 km/h (5 Bft) 95,74 %
05.07.2020 11:52 21,6 C 22,2 C 20,6 C 86 % 1011,8 hPa 0,0 l/m 0 min 0 min 294 W/m 25,7 km/h (4 Bft) 97,83 %
05.07.2020 11:54 21,7 C 22,2 C 20,6 C 85 % 1012,0 hPa 0,0 l/m 0 min 0 min 352 W/m 25,7 km/h (4 Bft) 95,74 %
05.07.2020 11:56 21,7 C 22,8 C 20,6 C 86 % 1011,9 hPa 0,0 l/m 0 min 0 min 357 W/m 29,0 km/h (5 Bft) 97,87 %
05.07.2020 11:58 21,7 C 22,8 C 21,1 C 86 % 1011,9 hPa 0,0 l/m 0 min 0 min 362 W/m 29,0 km/h (5 Bft) 95,74 %
05.07.2020 12:00 21,8 C 22,2 C 20,6 C 85 % 1011,9 hPa 0,0 l/m 0 min 0 min 265 W/m 32,2 km/h (5 Bft) 95,74 %
05.07.2020 12:02 21,8 C 22,2 C 20,6 C 85 % 1012,1 hPa 0,0 l/m 0 min 0 min 231 W/m 29,0 km/h (5 Bft) 94,29 %
05.07.2020 12:04 21,8 C 22,2 C 20,6 C 85 % 1011,9 hPa 0,0 l/m 0 min 0 min 265 W/m 22,5 km/h (4 Bft) 97,87 %
05.07.2020 12:08 21,9 C 22,2 C 20,6 C 84 % 1011,9 hPa 0,0 l/m 0 min 0 min 255 W/m 41,8 km/h (6 Bft) 97,85 %
05.07.2020 12:10 21,9 C 22,2 C 20,6 C 84 % 1011,9 hPa 0,0 l/m 0 min 0 min 328 W/m 41,8 km/h (6 Bft) 95,74 %
05.07.2020 12:12 21,9 C 22,8 C 21,1 C 84 % 1011,9 hPa 0,0 l/m 0 min 0 min 331 W/m 45,1 km/h (6 Bft) 95,74 %
05.07.2020 12:14 22,0 C 22,8 C 21,1 C 84 % 1011,7 hPa 0,0 l/m 0 min 0 min 311 W/m 29,0 km/h (5 Bft) 97,87 %
05.07.2020 12:16 22,1 C 22,8 C 21,1 C 84 % 1011,9 hPa 0,0 l/m 0 min 0 min 288 W/m 35,4 km/h (5 Bft) 97,87 %
05.07.2020 12:18 22,1 C 22,8 C 21,1 C 83 % 1011,8 hPa 0,0 l/m 0 min 0 min 308 W/m 41,8 km/h (6 Bft) 97,87 %
05.07.2020 12:20 22,1 C 22,2 C 21,1 C 82 % 1011,9 hPa 0,0 l/m 0 min 0 min 255 W/m 35,4 km/h (5 Bft) 97,83 %
05.07.2020 12:22 22,1 C 22,2 C 21,1 C 82 % 1011,8 hPa 0,0 l/m 0 min 0 min 223 W/m 35,4 km/h (5 Bft) 97,87 %
05.07.2020 12:24 22,1 C 22,2 C 20,6 C 82 % 1011,8 hPa 0,0 l/m 0 min 0 min 221 W/m 22,5 km/h (4 Bft) 95,74 %
05.07.2020 12:26 22,2 C 22,2 C 20,6 C 82 % 1011,7 hPa 0,0 l/m 0 min 0 min 228 W/m 19,3 km/h (3 Bft) 97,87 %
05.07.2020 12:28 22,2 C 22,2 C 20,6 C 82 % 1011,6 hPa 0,0 l/m 0 min 0 min 153 W/m 38,6 km/h (5 Bft) 97,87 %
05.07.2020 12:30 22,2 C 22,8 C 21,1 C 82 % 1011,7 hPa 0,0 l/m 0 min 0 min 145 W/m 29,0 km/h (5 Bft) 97,83 %
05.07.2020 12:32 22,2 C 22,8 C 21,1 C 82 % 1011,8 hPa 0,0 l/m 0 min 0 min 144 W/m 22,5 km/h (4 Bft) 97,87 %
05.07.2020 12:34 22,2 C 22,8 C 21,1 C 82 % 1011,8 hPa 0,0 l/m 0 min 0 min 148 W/m 22,5 km/h (4 Bft) 97,87 %
05.07.2020 12:36 22,3 C 22,8 C 21,1 C 82 % 1011,8 hPa 0,0 l/m 0 min 0 min 154 W/m 22,5 km/h (4 Bft) 95,74 %
05.07.2020 12:38 22,3 C 22,8 C 21,1 C 82 % 1011,8 hPa 0,0 l/m 0 min 0 min 186 W/m 22,5 km/h (4 Bft) 95,74 %
05.07.2020 12:40 22,3 C 23,3 C 21,1 C 82 % 1011,8 hPa 0,0 l/m 0 min 0 min 211 W/m 35,4 km/h (5 Bft) 97,87 %
05.07.2020 12:42 22,3 C 23,3 C 21,1 C 81 % 1011,8 hPa 0,0 l/m 0 min 0 min 177 W/m 32,2 km/h (5 Bft) 97,83 %
05.07.2020 12:44 22,4 C 23,3 C 21,1 C 81 % 1011,8 hPa 0,0 l/m 0 min 0 min 181 W/m 29,0 km/h (5 Bft) 95,74 %
05.07.2020 12:46 22,4 C 23,3 C 21,7 C 81 % 1011,8 hPa 0,0 l/m 0 min 0 min 199 W/m 22,5 km/h (4 Bft) 97,87 %
05.07.2020 12:48 22,5 C 23,3 C 21,1 C 81 % 1011,6 hPa 0,0 l/m 0 min 0 min 171 W/m 32,2 km/h (5 Bft) 97,87 %
05.07.2020 12:50 22,6 C 22,8 C 21,1 C 81 % 1011,8 hPa 0,0 l/m 0 min 0 min 131 W/m 25,7 km/h (4 Bft) 97,87 %
05.07.2020 12:52 22,5 C 22,2 C 21,1 C 80 % 1011,9 hPa 0,0 l/m 0 min 0 min 126 W/m 35,4 km/h (5 Bft) 97,87 %
05.07.2020 12:54 22,5 C 22,8 C 21,1 C 80 % 1011,8 hPa 0,0 l/m 0 min 0 min 146 W/m 29,0 km/h (5 Bft) 97,83 %
05.07.2020 12:56 22,5 C 22,8 C 21,1 C 80 % 1011,6 hPa 0,0 l/m 0 min 0 min 233 W/m 19,3 km/h (3 Bft) 97,87 %
05.07.2020 12:58 22,5 C 22,8 C 21,1 C 80 % 1011,6 hPa 0,0 l/m 0 min 0 min 201 W/m 22,5 km/h (4 Bft) 97,87 %
05.07.2020 13:00 22,6 C 22,8 C 21,1 C 81 % 1011,7 hPa 0,0 l/m 0 min 0 min 187 W/m 19,3 km/h (3 Bft) 95,74 %
05.07.2020 13:02 22,5 C 22,2 C 21,1 C 81 % 1011,7 hPa 0,0 l/m 0 min 0 min 157 W/m 22,5 km/h (4 Bft) 100,00 %
05.07.2020 13:04 22,5 C 22,8 C 21,1 C 81 % 1011,7 hPa 0,0 l/m 0 min 0 min 186 W/m 12,9 km/h (3 Bft) 100,00 %
05.07.2020 13:06 22,5 C 22,8 C 21,1 C 81 % 1011,6 hPa 0,0 l/m 0 min 0 min 182 W/m 12,9 km/h (3 Bft) 100,00 %
05.07.2020 13:08 22,5 C 22,8 C 21,1 C 81 % 1011,6 hPa 0,0 l/m 0 min 0 min 128 W/m 16,1 km/h (3 Bft) 100,00 %
05.07.2020 13:10 22,5 C 22,8 C 21,1 C 81 % 1011,6 hPa 0,0 l/m 0 min 0 min 122 W/m 12,9 km/h (3 Bft) 100,00 %
05.07.2020 13:12 22,5 C 22,8 C 21,1 C 82 % 1011,6 hPa 0,0 l/m 0 min 0 min 148 W/m 19,3 km/h (3 Bft) 100,00 %
05.07.2020 13:14 22,5 C 22,2 C 21,1 C 81 % 1011,8 hPa 0,0 l/m 0 min 0 min 106 W/m 38,6 km/h (5 Bft) 100,00 %
05.07.2020 13:16 22,5 C 22,2 C 21,1 C 81 % 1011,6 hPa 0,0 l/m 0 min 0 min 146 W/m 32,2 km/h (5 Bft) 97,87 %
05.07.2020 13:18 22,4 C 22,8 C 21,1 C 81 % 1011,6 hPa 0,0 l/m 0 min 0 min 188 W/m 32,2 km/h (5 Bft) 100,00 %
05.07.2020 13:20 22,5 C 23,3 C 21,1 C 81 % 1011,5 hPa 0,0 l/m 0 min 0 min 208 W/m 19,3 km/h (3 Bft) 100,00 %
05.07.2020 13:22 22,5 C 23,3 C 21,1 C 81 % 1011,5 hPa 0,0 l/m 0 min 0 min 192 W/m 41,8 km/h (6 Bft) 97,56 %
05.07.2020 13:24 22,5 C 23,3 C 21,1 C 81 % 1011,6 hPa 0,0 l/m 0 min 0 min 287 W/m 32,2 km/h (5 Bft) 95,74 %
05.07.2020 13:26 22,6 C 23,3 C 21,7 C 81 % 1011,5 hPa 0,0 l/m 0 min 0 min 285 W/m 25,7 km/h (4 Bft) 95,74 %
05.07.2020 13:28 22,6 C 22,8 C 21,1 C 81 % 1011,6 hPa 0,0 l/m 0 min 0 min 199 W/m 22,5 km/h (4 Bft) 98,08 %
05.07.2020 13:30 22,6 C 22,8 C 21,1 C 81 % 1011,6 hPa 0,0 l/m 0 min 0 min 161 W/m 25,7 km/h (4 Bft) 95,74 %
05.07.2020 13:32 22,6 C 22,2 C 21,1 C 80 % 1011,7 hPa 0,0 l/m 0 min 0 min 147 W/m 19,3 km/h (3 Bft) 97,92 %
05.07.2020 13:34 22,6 C 22,2 C 21,1 C 80 % 1011,8 hPa 0,0 l/m 0 min 0 min 140 W/m 35,4 km/h (5 Bft) 95,74 %
05.07.2020 13:36 22,5 C 22,2 C 21,1 C 80 % 1011,7 hPa 0,0 l/m 0 min 0 min 132 W/m 35,4 km/h (5 Bft) 97,87 %
05.07.2020 13:38 22,5 C 22,2 C 21,1 C 80 % 1011,8 hPa 0,0 l/m 0 min 0 min 114 W/m 29,0 km/h (5 Bft) 97,83 %
05.07.2020 13:40 22,5 C 22,2 C 20,6 C 80 % 1011,7 hPa 0,0 l/m 0 min 0 min 150 W/m 22,5 km/h (4 Bft) 97,87 %
05.07.2020 13:42 22,5 C 22,2 C 20,6 C 80 % 1011,6 hPa 0,0 l/m 0 min 0 min 159 W/m 16,1 km/h (3 Bft) 97,87 %
05.07.2020 13:44 22,4 C 22,2 C 21,1 C 81 % 1011,7 hPa 0,0 l/m 0 min 0 min 175 W/m 22,5 km/h (4 Bft) 97,87 %
05.07.2020 13:46 22,4 C 22,2 C 21,1 C 80 % 1011,7 hPa 0,0 l/m 0 min 0 min 176 W/m 32,2 km/h (5 Bft) 97,87 %
05.07.2020 13:48 22,4 C 22,2 C 21,1 C 80 % 1011,8 hPa 0,0 l/m 0 min 0 min 155 W/m 19,3 km/h (3 Bft) 97,87 %
05.07.2020 13:50 22,3 C 22,2 C 20,6 C 80 % 1011,8 hPa 0,0 l/m 0 min 0 min 158 W/m 32,2 km/h (5 Bft) 93,48 %
05.07.2020 13:52 22,3 C 22,2 C 21,1 C 80 % 1011,8 hPa 0,0 l/m 0 min 0 min 196 W/m 41,8 km/h (6 Bft) 95,74 %
05.07.2020 13:54 22,3 C 22,2 C 21,1 C 81 % 1011,8 hPa 0,0 l/m 0 min 0 min 209 W/m 25,7 km/h (4 Bft) 93,62 %
05.07.2020 13:56 22,3 C 22,2 C 21,1 C 81 % 1011,8 hPa 0,0 l/m 0 min 0 min 228 W/m 22,5 km/h (4 Bft) 95,74 %
05.07.2020 13:58 22,3 C 22,2 C 21,1 C 81 % 1011,8 hPa 0,0 l/m 0 min 0 min 242 W/m 19,3 km/h (3 Bft) 95,74 %
05.07.2020 14:00 22,3 C 22,8 C 21,1 C 81 % 1011,8 hPa 0,0 l/m 0 min 0 min 222 W/m 16,1 km/h (3 Bft) 95,74 %
05.07.2020 14:02 22,3 C 22,8 C 21,1 C 81 % 1011,9 hPa 0,0 l/m 0 min 0 min 283 W/m 19,3 km/h (3 Bft) 97,87 %
05.07.2020 14:04 22,3 C 22,8 C 21,1 C 81 % 1011,7 hPa 0,0 l/m 0 min 0 min 267 W/m 19,3 km/h (3 Bft) 95,74 %
05.07.2020 14:06 22,3 C 22,8 C 21,1 C 81 % 1011,9 hPa 0,0 l/m 0 min 0 min 214 W/m 22,5 km/h (4 Bft) 93,62 %
05.07.2020 14:08 22,3 C 22,8 C 21,1 C 81 % 1011,9 hPa 0,0 l/m 0 min 0 min 222 W/m 12,9 km/h (3 Bft) 95,74 %
05.07.2020 14:10 22,3 C 22,2 C 21,1 C 81 % 1011,9 hPa 0,0 l/m 0 min 0 min 162 W/m 22,5 km/h (4 Bft) 95,74 %
05.07.2020 14:12 22,3 C 21,7 C 21,1 C 81 % 1012,0 hPa 0,0 l/m 0 min 0 min 127 W/m 22,5 km/h (4 Bft) 95,65 %
05.07.2020 14:14 22,3 C 21,7 C 20,6 C 81 % 1011,8 hPa 0,0 l/m 0 min 0 min 141 W/m 22,5 km/h (4 Bft) 95,74 %
05.07.2020 14:16 22,3 C 21,7 C 20,6 C 81 % 1011,8 hPa 0,0 l/m 0 min 0 min 127 W/m 12,9 km/h (3 Bft) 93,62 %
05.07.2020 14:18 22,3 C 21,7 C 20,6 C 81 % 1011,9 hPa 0,0 l/m 0 min 0 min 114 W/m 16,1 km/h (3 Bft) 97,87 %
05.07.2020 14:20 22,3 C 21,7 C 20,6 C 82 % 1011,9 hPa 0,0 l/m 0 min 0 min 143 W/m 19,3 km/h (3 Bft) 97,87 %
05.07.2020 14:22 22,3 C 22,2 C 20,6 C 82 % 1012,0 hPa 0,0 l/m 0 min 0 min 273 W/m 35,4 km/h (5 Bft) 97,87 %
05.07.2020 14:24 22,2 C 22,8 C 21,1 C 81 % 1011,9 hPa 0,0 l/m 0 min 0 min 317 W/m 41,8 km/h (6 Bft) 95,65 %
05.07.2020 14:26 22,2 C 22,8 C 21,1 C 82 % 1011,9 hPa 0,0 l/m 0 min 0 min 263 W/m 22,5 km/h (4 Bft) 93,62 %
05.07.2020 14:28 22,3 C 22,8 C 21,1 C 82 % 1011,8 hPa 0,0 l/m 0 min 0 min 238 W/m 22,5 km/h (4 Bft) 97,87 %
05.07.2020 14:30 22,3 C 22,8 C 21,1 C 82 % 1011,9 hPa 0,0 l/m 0 min 0 min 260 W/m 38,6 km/h (5 Bft) 95,74 %
05.07.2020 14:32 22,3 C 22,2 C 21,1 C 81 % 1012,2 hPa 0,0 l/m 0 min 0 min 233 W/m 25,7 km/h (4 Bft) 97,87 %
05.07.2020 14:34 22,3 C 22,2 C 21,1 C 81 % 1011,9 hPa 0,0 l/m 0 min 0 min 196 W/m 29,0 km/h (5 Bft) 97,87 %
05.07.2020 14:36 22,2 C 22,2 C 21,1 C 81 % 1011,9 hPa 0,0 l/m 0 min 0 min 228 W/m 25,7 km/h (4 Bft) 100,00 %
05.07.2020 14:38 22,3 C 22,8 C 21,1 C 81 % 1011,9 hPa 0,0 l/m 0 min 0 min 250 W/m 25,7 km/h (4 Bft) 100,00 %
05.07.2020 14:40 22,3 C 22,8 C 21,1 C 81 % 1011,8 hPa 0,0 l/m 0 min 0 min 206 W/m 19,3 km/h (3 Bft) 100,00 %
05.07.2020 14:42 22,3 C 22,8 C 21,1 C 82 % 1011,9 hPa 0,0 l/m 0 min 0 min 240 W/m 12,9 km/h (3 Bft) 97,87 %
05.07.2020 14:44 22,3 C 22,8 C 21,1 C 82 % 1011,8 hPa 0,0 l/m 0 min 0 min 292 W/m 19,3 km/h (3 Bft) 100,00 %
05.07.2020 14:46 22,3 C 23,3 C 21,1 C 82 % 1011,8 hPa 0,0 l/m 0 min 0 min 278 W/m 19,3 km/h (3 Bft) 100,00 %
05.07.2020 14:48 22,4 C 22,8 C 21,1 C 81 % 1011,8 hPa 0,0 l/m 0 min 0 min 181 W/m 22,5 km/h (4 Bft) 100,00 %
05.07.2020 14:50 22,4 C 22,2 C 21,1 C 81 % 1011,8 hPa 0,0 l/m 0 min 0 min 149 W/m 25,7 km/h (4 Bft) 100,00 %
05.07.2020 14:52 22,4 C 22,2 C 21,1 C 81 % 1011,7 hPa 0,0 l/m 0 min 0 min 154 W/m 25,7 km/h (4 Bft) 100,00 %
05.07.2020 14:54 22,4 C 22,2 C 21,1 C 81 % 1011,8 hPa 0,0 l/m 0 min 0 min 146 W/m 25,7 km/h (4 Bft) 97,87 %
05.07.2020 14:56 22,3 C 21,7 C 20,6 C 81 % 1011,8 hPa 0,0 l/m 0 min 0 min 129 W/m 19,3 km/h (3 Bft) 97,87 %
05.07.2020 14:58 22,3 C 21,7 C 20,6 C 81 % 1011,9 hPa 0,0 l/m 0 min 0 min 109 W/m 22,5 km/h (4 Bft) 100,00 %
05.07.2020 15:00 22,3 C 21,1 C 20,6 C 81 % 1011,9 hPa 0,0 l/m 0 min 0 min 116 W/m 38,6 km/h (5 Bft) 100,00 %
05.07.2020 15:02 22,3 C 21,1 C 20,6 C 82 % 1012,0 hPa 0,0 l/m 0 min 0 min 107 W/m 22,5 km/h (4 Bft) 97,87 %
05.07.2020 15:04 22,2 C 21,7 C 20,6 C 82 % 1012,0 hPa 0,0 l/m 0 min 0 min 177 W/m 25,7 km/h (4 Bft) 100,00 %
05.07.2020 15:06 22,2 C 21,7 C 20,6 C 82 % 1012,0 hPa 0,0 l/m 0 min 0 min 218 W/m 19,3 km/h (3 Bft) 97,87 %
05.07.2020 15:08 22,1 C 21,7 C 20,6 C 82 % 1012,0 hPa 0,0 l/m 0 min 0 min 164 W/m 16,1 km/h (3 Bft) 100,00 %
05.07.2020 15:10 22,1 C 21,7 C 20,6 C 82 % 1012,0 hPa 0,0 l/m 0 min 0 min 115 W/m 22,5 km/h (4 Bft) 95,65 %
05.07.2020 15:12 22,1 C 22,2 C 20,6 C 82 % 1012,0 hPa 0,0 l/m 0 min 0 min 163 W/m 19,3 km/h (3 Bft) 97,87 %
05.07.2020 15:14 22,1 C 23,3 C 21,1 C 83 % 1011,9 hPa 0,0 l/m 0 min 0 min 384 W/m 19,3 km/h (3 Bft) 97,87 %
05.07.2020 15:16 22,2 C 23,9 C 21,1 C 84 % 1011,8 hPa 0,0 l/m 2 min 0 min 419 W/m 16,1 km/h (3 Bft) 100,00 %
05.07.2020 15:18 22,2 C 23,9 C 21,1 C 84 % 1011,9 hPa 0,0 l/m 0 min 0 min 359 W/m 16,1 km/h (3 Bft) 100,00 %
05.07.2020 15:20 22,3 C 23,9 C 21,7 C 84 % 1011,9 hPa 0,0 l/m 0 min 0 min 372 W/m 9,7 km/h (2 Bft) 97,87 %
05.07.2020 15:22 22,3 C 23,3 C 21,7 C 83 % 1011,9 hPa 0,0 l/m 0 min 0 min 320 W/m 32,2 km/h (5 Bft) 97,83 %
05.07.2020 15:24 22,3 C 22,8 C 21,7 C 83 % 1011,9 hPa 0,0 l/m 0 min 0 min 274 W/m 25,7 km/h (4 Bft) 95,74 %
05.07.2020 15:26 22,4 C 22,8 C 21,1 C 82 % 1011,9 hPa 0,0 l/m 0 min 0 min 212 W/m 25,7 km/h (4 Bft) 100,00 %
05.07.2020 15:28 22,4 C 22,8 C 21,1 C 82 % 1011,9 hPa 0,0 l/m 0 min 0 min 278 W/m 19,3 km/h (3 Bft) 97,87 %
05.07.2020 15:30 22,4 C 23,3 C 21,7 C 83 % 1011,8 hPa 0,0 l/m 0 min 0 min 309 W/m 25,7 km/h (4 Bft) 97,87 %
05.07.2020 15:32 22,4 C 23,3 C 21,7 C 82 % 1012,1 hPa 0,0 l/m 0 min 0 min 353 W/m 19,3 km/h (3 Bft) 95,83 %
05.07.2020 15:34 22,5 C 23,3 C 21,7 C 82 % 1011,9 hPa 0,0 l/m 0 min 0 min 274 W/m 16,1 km/h (3 Bft) 97,83 %
05.07.2020 15:36 22,5 C 22,2 C 21,7 C 82 % 1011,9 hPa 0,0 l/m 0 min 2 min 240 W/m 19,3 km/h (3 Bft) 97,87 %
05.07.2020 15:38 22,6 C 21,1 C 21,1 C 83 % 1011,9 hPa 0,0 l/m 0 min 2 min 166 W/m 22,5 km/h (4 Bft) 95,74 %
05.07.2020 15:40 22,5 C 21,1 C 21,1 C 83 % 1011,9 hPa 0,0 l/m 0 min 2 min 117 W/m 29,0 km/h (5 Bft) 97,87 %
05.07.2020 15:42 22,4 C 20,0 C 20,6 C 83 % 1012,0 hPa 0,0 l/m 0 min 2 min 261 W/m 35,4 km/h (5 Bft) 97,87 %
05.07.2020 15:44 22,4 C 20,6 C 20,6 C 84 % 1012,0 hPa 0,0 l/m 0 min 2 min 325 W/m 19,3 km/h (3 Bft) 97,87 %
05.07.2020 15:46 22,3 C 21,7 C 20,6 C 85 % 1012,1 hPa 0,0 l/m 0 min 2 min 350 W/m 22,5 km/h (4 Bft) 95,65 %
05.07.2020 15:48 22,3 C 23,9 C 21,1 C 85 % 1012,1 hPa 0,0 l/m 0 min 0 min 353 W/m 22,5 km/h (4 Bft) 95,74 %
05.07.2020 15:50 22,3 C 23,3 C 21,1 C 85 % 1012,0 hPa 0,0 l/m 0 min 2 min 309 W/m 19,3 km/h (3 Bft) 97,87 %
05.07.2020 15:52 22,3 C 22,8 C 21,1 C 86 % 1012,0 hPa 0,0 l/m 0 min 2 min 187 W/m 16,1 km/h (3 Bft) 93,75 %
05.07.2020 15:54 22,3 C 22,2 C 21,1 C 85 % 1012,0 hPa 0,0 l/m 0 min 2 min 226 W/m 12,9 km/h (3 Bft) 97,87 %
05.07.2020 15:56 22,4 C 21,1 C 20,6 C 86 % 1012,2 hPa 0,0 l/m 0 min 2 min 244 W/m 22,5 km/h (4 Bft) 97,87 %
05.07.2020 15:58 22,3 C 20,6 C 20,6 C 86 % 1012,1 hPa 0,0 l/m 0 min 2 min 300 W/m 19,3 km/h (3 Bft) 97,83 %
05.07.2020 16:00 22,3 C 22,2 C 20,6 C 86 % 1012,2 hPa 0,0 l/m 2 min 2 min 477 W/m 25,7 km/h (4 Bft) 97,87 %
05.07.2020 16:02 22,3 C 22,8 C 20,6 C 87 % 1012,1 hPa 0,0 l/m 2 min 2 min 821 W/m 16,1 km/h (3 Bft) 97,92 %
05.07.2020 16:04 22,3 C 23,3 C 20,6 C 87 % 1012,1 hPa 0,0 l/m 0 min 0 min 359 W/m 16,1 km/h (3 Bft) 97,87 %
05.07.2020 16:06 22,3 C 24,4 C 21,1 C 87 % 1012,0 hPa 0,0 l/m 0 min 0 min 329 W/m 22,5 km/h (4 Bft) 97,87 %
05.07.2020 16:08 22,3 C 24,4 C 21,1 C 87 % 1012,0 hPa 0,0 l/m 0 min 0 min 292 W/m 29,0 km/h (5 Bft) 97,83 %
05.07.2020 16:10 22,4 C 25,0 C 21,1 C 86 % 1011,9 hPa 0,0 l/m 0 min 0 min 283 W/m 19,3 km/h (3 Bft) 97,87 %
05.07.2020 16:12 22,4 C 25,0 C 21,1 C 87 % 1012,0 hPa 0,0 l/m 0 min 0 min 283 W/m 22,5 km/h (4 Bft) 97,87 %
05.07.2020 16:14 22,5 C 25,0 C 21,1 C 86 % 1011,9 hPa 0,0 l/m 0 min 0 min 283 W/m 25,7 km/h (4 Bft) 97,87 %
05.07.2020 16:16 22,6 C 24,4 C 21,1 C 86 % 1011,9 hPa 0,0 l/m 0 min 0 min 271 W/m 12,9 km/h (3 Bft) 97,87 %
05.07.2020 16:18 22,6 C 23,3 C 21,1 C 85 % 1011,9 hPa 0,0 l/m 0 min 0 min 153 W/m 22,5 km/h (4 Bft) 93,62 %
05.07.2020 16:20 22,7 C 22,8 C 21,1 C 84 % 1011,9 hPa 0,0 l/m 0 min 0 min 134 W/m 19,3 km/h (3 Bft) 93,48 %
05.07.2020 16:22 22,7 C 22,8 C 21,1 C 84 % 1012,0 hPa 0,0 l/m 0 min 0 min 136 W/m 19,3 km/h (3 Bft) 95,74 %
05.07.2020 16:24 22,7 C 22,8 C 21,1 C 84 % 1012,0 hPa 0,0 l/m 0 min 0 min 274 W/m 16,1 km/h (3 Bft) 95,74 %
05.07.2020 16:26 22,7 C 24,4 C 21,1 C 85 % 1012,1 hPa 0,0 l/m 2 min 0 min 360 W/m 22,5 km/h (4 Bft) 97,87 %
05.07.2020 16:28 22,8 C 25,0 C 21,7 C 85 % 1012,0 hPa 0,0 l/m 2 min 0 min 362 W/m 12,9 km/h (3 Bft) 95,74 %
05.07.2020 16:30 22,8 C 25,0 C 21,7 C 85 % 1012,0 hPa 0,0 l/m 0 min 0 min 313 W/m 19,3 km/h (3 Bft) 93,62 %
05.07.2020 16:32 22,8 C 23,3 C 21,7 C 84 % 1012,3 hPa 0,0 l/m 0 min 0 min 202 W/m 25,7 km/h (4 Bft) 95,74 %
05.07.2020 16:34 22,8 C 22,8 C 21,1 C 83 % 1012,2 hPa 0,0 l/m 0 min 0 min 201 W/m 25,7 km/h (4 Bft) 95,74 %
05.07.2020 16:36 22,8 C 23,3 C 21,1 C 82 % 1012,0 hPa 0,0 l/m 0 min 2 min 310 W/m 22,5 km/h (4 Bft) 97,87 %
05.07.2020 16:38 22,8 C 23,9 C 21,7 C 83 % 1012,0 hPa 0,0 l/m 0 min 2 min 339 W/m 38,6 km/h (5 Bft) 95,74 %
05.07.2020 16:40 22,9 C 24,4 C 21,7 C 83 % 1011,9 hPa 0,0 l/m 0 min 0 min 339 W/m 19,3 km/h (3 Bft) 93,62 %
05.07.2020 16:42 22,9 C 25,6 C 21,7 C 83 % 1012,0 hPa 0,0 l/m 2 min 0 min 339 W/m 19,3 km/h (3 Bft) 93,62 %
05.07.2020 16:44 23,0 C 25,6 C 21,7 C 83 % 1011,9 hPa 0,0 l/m 2 min 0 min 355 W/m 19,3 km/h (3 Bft) 95,65 %
05.07.2020 16:46 23,1 C 25,6 C 22,2 C 82 % 1012,0 hPa 0,0 l/m 2 min 0 min 390 W/m 16,1 km/h (3 Bft) 95,74 %
05.07.2020 16:48 23,1 C 25,0 C 21,7 C 80 % 1012,0 hPa 0,0 l/m 2 min 0 min 433 W/m 29,0 km/h (5 Bft) 95,74 %
05.07.2020 16:50 23,2 C 25,6 C 22,2 C 79 % 1012,0 hPa 0,0 l/m 2 min 0 min 345 W/m 45,1 km/h (6 Bft) 93,62 %
05.07.2020 16:52 23,2 C 23,9 C 21,7 C 79 % 1012,0 hPa 0,0 l/m 0 min 0 min 278 W/m 38,6 km/h (5 Bft) 95,74 %
05.07.2020 16:54 23,2 C 23,3 C 21,7 C 78 % 1011,9 hPa 0,0 l/m 0 min 0 min 205 W/m 22,5 km/h (4 Bft) 95,65 %
05.07.2020 16:56 23,2 C 23,3 C 21,7 C 78 % 1011,8 hPa 0,0 l/m 0 min 0 min 250 W/m 22,5 km/h (4 Bft) 95,74 %
05.07.2020 16:58 23,2 C 23,3 C 21,7 C 78 % 1011,8 hPa 0,0 l/m 0 min 0 min 260 W/m 25,7 km/h (4 Bft) 93,62 %
05.07.2020 17:00 23,2 C 23,3 C 21,7 C 77 % 1011,8 hPa 0,0 l/m 0 min 0 min 264 W/m 32,2 km/h (5 Bft) 95,74 %
05.07.2020 17:02 23,2 C 22,8 C 21,7 C 77 % 1011,7 hPa 0,0 l/m 0 min 0 min 158 W/m 25,7 km/h (4 Bft) 97,92 %
05.07.2020 17:04 23,2 C 22,2 C 21,1 C 77 % 1011,8 hPa 0,0 l/m 0 min 0 min 92 W/m 25,7 km/h (4 Bft) 95,74 %
05.07.2020 17:06 23,1 C 22,2 C 21,1 C 77 % 1011,7 hPa 0,0 l/m 0 min 0 min 61 W/m 16,1 km/h (3 Bft) 95,65 %
05.07.2020 17:08 23,0 C 21,7 C 21,1 C 78 % 1011,9 hPa 0,0 l/m 0 min 2 min 57 W/m 16,1 km/h (3 Bft) 97,87 %
05.07.2020 17:10 22,9 C 21,1 C 20,6 C 78 % 1011,9 hPa 0,0 l/m 0 min 2 min 53 W/m 22,5 km/h (4 Bft) 97,87 %
05.07.2020 17:12 22,9 C 20,0 C 20,6 C 79 % 1012,0 hPa 0,0 l/m 0 min 2 min 87 W/m 16,1 km/h (3 Bft) 97,87 %
05.07.2020 17:14 22,8 C 18,9 C 20,0 C 81 % 1012,0 hPa 0,2 l/m 0 min 2 min 116 W/m 22,5 km/h (4 Bft) 95,83 %
05.07.2020 17:16 22,7 C 18,9 C 20,0 C 82 % 1011,9 hPa 0,0 l/m 0 min 2 min 172 W/m 19,3 km/h (3 Bft) 97,83 %
05.07.2020 17:18 22,7 C 18,9 C 20,0 C 84 % 1011,9 hPa 0,0 l/m 0 min 2 min 157 W/m 12,9 km/h (3 Bft) 97,87 %
05.07.2020 17:20 22,6 C 19,4 C 20,0 C 85 % 1012,0 hPa 0,0 l/m 0 min 0 min 184 W/m 19,3 km/h (3 Bft) 100,00 %
05.07.2020 17:22 22,4 C 19,4 C 20,0 C 85 % 1011,9 hPa 0,0 l/m 0 min 0 min 186 W/m 12,9 km/h (3 Bft) 95,74 %
05.07.2020 17:24 22,4 C 21,1 C 20,0 C 86 % 1011,9 hPa 0,0 l/m 0 min 0 min 186 W/m 12,9 km/h (3 Bft) 100,00 %
05.07.2020 17:26 22,4 C 22,2 C 20,6 C 87 % 1011,9 hPa 0,0 l/m 2 min 0 min 430 W/m 19,3 km/h (3 Bft) 97,87 %
05.07.2020 17:28 22,4 C 22,8 C 20,6 C 87 % 1011,9 hPa 0,0 l/m 2 min 0 min 627 W/m 16,1 km/h (3 Bft) 100,00 %
05.07.2020 17:30 22,4 C 22,8 C 20,6 C 88 % 1011,9 hPa 0,0 l/m 2 min 0 min 612 W/m 16,1 km/h (3 Bft) 97,87 %
05.07.2020 17:32 22,4 C 22,8 C 20,6 C 88 % 1011,8 hPa 0,0 l/m 2 min 0 min 637 W/m 19,3 km/h (3 Bft) 97,30 %
05.07.2020 17:34 22,4 C 22,8 C 20,6 C 88 % 1011,7 hPa 0,0 l/m 2 min 0 min 646 W/m 19,3 km/h (3 Bft) 100,00 %
05.07.2020 17:36 22,5 C 22,8 C 21,1 C 88 % 1011,7 hPa 0,0 l/m 2 min 0 min 633 W/m 19,3 km/h (3 Bft) 100,00 %
05.07.2020 17:38 22,5 C 23,3 C 21,1 C 88 % 1011,7 hPa 0,0 l/m 2 min 0 min 638 W/m 19,3 km/h (3 Bft) 97,87 %
05.07.2020 17:40 22,6 C 23,9 C 21,1 C 88 % 1011,7 hPa 0,0 l/m 2 min 0 min 634 W/m 16,1 km/h (3 Bft) 100,00 %
05.07.2020 17:42 22,6 C 23,9 C 21,1 C 88 % 1011,6 hPa 0,0 l/m 2 min 0 min 630 W/m 19,3 km/h (3 Bft) 97,83 %
05.07.2020 17:44 22,6 C 24,4 C 21,1 C 88 % 1011,6 hPa 0,0 l/m 2 min 0 min 569 W/m 12,9 km/h (3 Bft) 100,00 %
05.07.2020 17:46 22,7 C 24,4 C 21,1 C 88 % 1011,5 hPa 0,0 l/m 2 min 0 min 574 W/m 22,5 km/h (4 Bft) 100,00 %
05.07.2020 17:48 22,8 C 24,4 C 21,1 C 86 % 1011,7 hPa 0,0 l/m 2 min 0 min 578 W/m 22,5 km/h (4 Bft) 97,87 %
05.07.2020 17:50 22,8 C 25,0 C 21,7 C 85 % 1011,6 hPa 0,0 l/m 2 min 0 min 584 W/m 19,3 km/h (3 Bft) 100,00 %
05.07.2020 17:52 22,8 C 24,4 C 21,1 C 84 % 1011,6 hPa 0,0 l/m 2 min 0 min 602 W/m 22,5 km/h (4 Bft) 97,87 %
05.07.2020 17:54 22,9 C 24,4 C 21,1 C 83 % 1011,5 hPa 0,0 l/m 2 min 0 min 617 W/m 19,3 km/h (3 Bft) 100,00 %
05.07.2020 17:56 22,9 C 24,4 C 21,1 C 83 % 1011,5 hPa 0,0 l/m 2 min 0 min 609 W/m 22,5 km/h (4 Bft) 100,00 %
05.07.2020 17:58 23,0 C 25,0 C 21,1 C 83 % 1011,4 hPa 0,0 l/m 2 min 0 min 555 W/m 16,1 km/h (3 Bft) 97,87 %
05.07.2020 18:00 23,1 C 25,6 C 21,7 C 83 % 1011,6 hPa 0,0 l/m 2 min 0 min 551 W/m 25,7 km/h (4 Bft) 100,00 %
05.07.2020 18:02 23,1 C 25,0 C 21,7 C 82 % 1011,4 hPa 0,0 l/m 2 min 0 min 543 W/m 29,0 km/h (5 Bft) 100,00 %
05.07.2020 18:04 23,2 C 25,6 C 21,7 C 81 % 1011,3 hPa 0,0 l/m 2 min 0 min 538 W/m 16,1 km/h (3 Bft) 100,00 %
05.07.2020 18:08 23,3 C 25,6 C 22,2 C 80 % 1011,2 hPa 0,0 l/m 4 min 0 min 542 W/m 19,3 km/h (3 Bft) 98,92 %
05.07.2020 18:10 23,4 C 26,1 C 22,2 C 80 % 1011,3 hPa 0,0 l/m 2 min 0 min 559 W/m 19,3 km/h (3 Bft) 100,00 %
05.07.2020 18:12 23,5 C 26,1 C 22,2 C 79 % 1011,2 hPa 0,0 l/m 2 min 0 min 540 W/m 22,5 km/h (4 Bft) 97,87 %
05.07.2020 18:14 23,6 C 25,6 C 22,2 C 79 % 1011,2 hPa 0,0 l/m 2 min 0 min 499 W/m 16,1 km/h (3 Bft) 100,00 %
05.07.2020 18:16 23,7 C 25,6 C 21,7 C 78 % 1011,2 hPa 0,0 l/m 2 min 0 min 510 W/m 35,4 km/h (5 Bft) 100,00 %
05.07.2020 18:18 23,8 C 23,9 C 21,7 C 77 % 1011,3 hPa 0,0 l/m 2 min 0 min 493 W/m 25,7 km/h (4 Bft) 100,00 %
05.07.2020 18:20 23,8 C 23,3 C 21,7 C 76 % 1011,2 hPa 0,0 l/m 0 min 0 min 74 W/m 12,9 km/h (3 Bft) 97,87 %
05.07.2020 18:22 23,8 C 23,3 C 21,1 C 76 % 1011,2 hPa 0,0 l/m 0 min 0 min 69 W/m 19,3 km/h (3 Bft) 100,00 %
05.07.2020 18:24 23,8 C 24,4 C 21,1 C 76 % 1011,1 hPa 0,0 l/m 2 min 0 min 476 W/m 16,1 km/h (3 Bft) 100,00 %
05.07.2020 18:26 23,8 C 25,0 C 21,7 C 76 % 1011,2 hPa 0,0 l/m 2 min 0 min 472 W/m 22,5 km/h (4 Bft) 97,87 %
05.07.2020 18:28 23,8 C 25,0 C 21,7 C 76 % 1011,1 hPa 0,0 l/m 2 min 0 min 464 W/m 22,5 km/h (4 Bft) 97,87 %
05.07.2020 18:30 23,8 C 23,9 C 21,7 C 76 % 1011,1 hPa 0,0 l/m 2 min 0 min 433 W/m 16,1 km/h (3 Bft) 100,00 %
05.07.2020 18:32 23,8 C 23,3 C 21,7 C 75 % 1011,0 hPa 0,0 l/m 0 min 0 min 53 W/m 19,3 km/h (3 Bft) 100,00 %
05.07.2020 18:34 23,8 C 22,8 C 21,7 C 75 % 1011,0 hPa 0,0 l/m 0 min 0 min 72 W/m 22,5 km/h (4 Bft) 97,87 %
05.07.2020 18:36 23,8 C 22,8 C 21,1 C 75 % 1011,1 hPa 0,0 l/m 0 min 0 min 79 W/m 19,3 km/h (3 Bft) 97,87 %
05.07.2020 18:38 23,7 C 22,2 C 21,1 C 75 % 1011,0 hPa 0,0 l/m 0 min 0 min 94 W/m 22,5 km/h (4 Bft) 97,87 %
05.07.2020 18:40 23,6 C 23,3 C 21,1 C 74 % 1011,0 hPa 0,0 l/m 0 min 0 min 102 W/m 32,2 km/h (5 Bft) 100,00 %
05.07.2020 18:42 23,6 C 23,9 C 21,7 C 73 % 1011,1 hPa 0,0 l/m 2 min 0 min 494 W/m 19,3 km/h (3 Bft) 100,00 %
05.07.2020 18:44 23,6 C 23,9 C 21,7 C 74 % 1011,1 hPa 0,0 l/m 2 min 0 min 520 W/m 22,5 km/h (4 Bft) 97,87 %
05.07.2020 18:46 23,6 C 23,3 C 21,7 C 73 % 1011,0 hPa 0,0 l/m 2 min 0 min 368 W/m 19,3 km/h (3 Bft) 100,00 %
05.07.2020 18:48 23,6 C 23,9 C 21,7 C 72 % 1011,1 hPa 0,0 l/m 2 min 0 min 307 W/m 32,2 km/h (5 Bft) 100,00 %
05.07.2020 18:50 23,6 C 24,4 C 21,7 C 71 % 1011,0 hPa 0,0 l/m 2 min 0 min 506 W/m 22,5 km/h (4 Bft) 97,87 %
05.07.2020 18:52 23,7 C 24,4 C 21,7 C 72 % 1011,0 hPa 0,0 l/m 2 min 0 min 485 W/m 25,7 km/h (4 Bft) 95,65 %
05.07.2020 18:54 23,7 C 24,4 C 22,2 C 71 % 1011,0 hPa 0,0 l/m 2 min 0 min 474 W/m 22,5 km/h (4 Bft) 95,74 %
05.07.2020 18:56 23,7 C 23,9 C 21,7 C 72 % 1011,1 hPa 0,0 l/m 2 min 0 min 412 W/m 22,5 km/h (4 Bft) 95,83 %
05.07.2020 18:58 23,8 C 24,4 C 21,7 C 71 % 1011,1 hPa 0,0 l/m 2 min 0 min 227 W/m 29,0 km/h (5 Bft) 95,74 %
05.07.2020 19:00 23,8 C 24,4 C 22,2 C 71 % 1011,0 hPa 0,0 l/m 2 min 0 min 461 W/m 29,0 km/h (5 Bft) 95,74 %
05.07.2020 19:02 23,8 C 24,4 C 22,2 C 71 % 1010,9 hPa 0,0 l/m 2 min 0 min 460 W/m 25,7 km/h (4 Bft) 93,88 %
05.07.2020 19:04 23,9 C 24,4 C 22,2 C 71 % 1010,9 hPa 0,0 l/m 2 min 0 min 443 W/m 16,1 km/h (3 Bft) 95,12 %
05.07.2020 19:06 23,9 C 23,9 C 21,7 C 71 % 1010,9 hPa 0,0 l/m 2 min 0 min 246 W/m 19,3 km/h (3 Bft) 95,74 %
05.07.2020 19:08 23,9 C 22,8 C 21,7 C 71 % 1010,9 hPa 0,0 l/m 0 min 0 min 61 W/m 16,1 km/h (3 Bft) 93,62 %
05.07.2020 19:10 23,8 C 22,8 C 21,1 C 71 % 1011,0 hPa 0,0 l/m 0 min 0 min 70 W/m 12,9 km/h (3 Bft) 97,87 %
05.07.2020 19:12 23,8 C 22,2 C 21,1 C 71 % 1010,9 hPa 0,0 l/m 0 min 0 min 57 W/m 25,7 km/h (4 Bft) 95,74 %
05.07.2020 19:14 23,7 C 22,2 C 21,1 C 71 % 1011,0 hPa 0,0 l/m 0 min 0 min 43 W/m 19,3 km/h (3 Bft) 93,62 %
05.07.2020 19:16 23,6 C 22,2 C 21,1 C 71 % 1010,9 hPa 0,0 l/m 0 min 0 min 46 W/m 19,3 km/h (3 Bft) 96,15 %
05.07.2020 19:18 23,6 C 22,2 C 21,1 C 71 % 1011,0 hPa 0,0 l/m 0 min 0 min 46 W/m 19,3 km/h (3 Bft) 95,12 %
05.07.2020 19:20 23,4 C 22,2 C 21,1 C 71 % 1011,0 hPa 0,0 l/m 0 min 0 min 41 W/m 29,0 km/h (5 Bft) 93,62 %
05.07.2020 19:22 23,4 C 22,2 C 21,1 C 71 % 1010,9 hPa 0,0 l/m 0 min 0 min 163 W/m 19,3 km/h (3 Bft) 95,74 %
05.07.2020 19:24 23,3 C 22,8 C 21,1 C 71 % 1010,9 hPa 0,0 l/m 2 min 0 min 325 W/m 22,5 km/h (4 Bft) 95,74 %
05.07.2020 19:26 23,3 C 22,2 C 21,1 C 71 % 1011,0 hPa 0,0 l/m 2 min 0 min 248 W/m 12,9 km/h (3 Bft) 93,62 %
05.07.2020 19:28 23,2 C 22,2 C 21,1 C 72 % 1011,0 hPa 0,0 l/m 0 min 0 min 54 W/m 12,9 km/h (3 Bft) 97,83 %
05.07.2020 19:30 23,2 C 22,2 C 21,1 C 71 % 1011,0 hPa 0,0 l/m 0 min 0 min 53 W/m 22,5 km/h (4 Bft) 93,62 %
05.07.2020 19:32 23,1 C 21,7 C 21,1 C 70 % 1010,9 hPa 0,0 l/m 0 min 0 min 59 W/m 19,3 km/h (3 Bft) 92,73 %
05.07.2020 19:34 23,1 C 21,7 C 21,1 C 70 % 1010,9 hPa 0,0 l/m 0 min 0 min 48 W/m 19,3 km/h (3 Bft) 95,74 %
05.07.2020 19:36 22,9 C 21,7 C 20,6 C 71 % 1010,9 hPa 0,0 l/m 0 min 0 min 40 W/m 19,3 km/h (3 Bft) 95,65 %
05.07.2020 19:38 22,9 C 21,7 C 20,6 C 71 % 1010,8 hPa 0,0 l/m 0 min 0 min 44 W/m 12,9 km/h (3 Bft) 93,62 %
05.07.2020 19:40 22,9 C 21,7 C 20,6 C 71 % 1010,8 hPa 0,0 l/m 0 min 0 min 51 W/m 16,1 km/h (3 Bft) 93,62 %
05.07.2020 19:42 22,8 C 21,7 C 20,6 C 72 % 1010,8 hPa 0,0 l/m 0 min 0 min 47 W/m 16,1 km/h (3 Bft) 95,74 %
05.07.2020 19:44 22,8 C 21,7 C 20,6 C 72 % 1010,9 hPa 0,0 l/m 0 min 0 min 94 W/m 16,1 km/h (3 Bft) 95,74 %
05.07.2020 19:46 22,7 C 21,7 C 20,6 C 72 % 1010,8 hPa 0,0 l/m 0 min 0 min 73 W/m 25,7 km/h (4 Bft) 97,87 %
05.07.2020 19:48 22,7 C 21,7 C 20,6 C 72 % 1010,7 hPa 0,0 l/m 0 min 0 min 63 W/m 16,1 km/h (3 Bft) 95,74 %
05.07.2020 19:50 22,6 C 21,7 C 20,6 C 71 % 1010,7 hPa 0,0 l/m 0 min 0 min 53 W/m 22,5 km/h (4 Bft) 97,83 %
05.07.2020 19:52 22,6 C 21,7 C 20,6 C 72 % 1010,9 hPa 0,0 l/m 0 min 0 min 41 W/m 16,1 km/h (3 Bft) 97,87 %
05.07.2020 19:54 22,6 C 21,7 C 20,6 C 72 % 1010,7 hPa 0,0 l/m 0 min 0 min 58 W/m 12,9 km/h (3 Bft) 97,87 %
05.07.2020 19:56 22,6 C 21,7 C 20,6 C 72 % 1010,7 hPa 0,0 l/m 0 min 0 min 46 W/m 16,1 km/h (3 Bft) 100,00 %
05.07.2020 19:58 22,5 C 21,7 C 20,6 C 71 % 1010,8 hPa 0,0 l/m 0 min 0 min 38 W/m 22,5 km/h (4 Bft) 97,87 %
05.07.2020 20:00 22,4 C 21,7 C 20,6 C 70 % 1010,7 hPa 0,0 l/m 0 min 0 min 34 W/m 25,7 km/h (4 Bft) 97,83 %
05.07.2020 20:02 22,4 C 21,7 C 20,6 C 70 % 1010,7 hPa 0,0 l/m 0 min 0 min 33 W/m 19,3 km/h (3 Bft) 97,92 %
05.07.2020 20:04 22,4 C 21,7 C 20,6 C 71 % 1010,7 hPa 0,0 l/m 0 min 0 min 33 W/m 16,1 km/h (3 Bft) 97,87 %
05.07.2020 20:06 22,4 C 21,1 C 20,6 C 71 % 1010,7 hPa 0,0 l/m 0 min 0 min 31 W/m 16,1 km/h (3 Bft) 97,87 %
05.07.2020 20:08 22,4 C 21,1 C 20,6 C 71 % 1010,7 hPa 0,0 l/m 0 min 0 min 37 W/m 16,1 km/h (3 Bft) 97,87 %
05.07.2020 20:10 22,4 C 21,1 C 20,6 C 71 % 1010,7 hPa 0,0 l/m 0 min 0 min 31 W/m 9,7 km/h (2 Bft) 97,22 %
05.07.2020 20:12 22,3 C 21,1 C 20,6 C 71 % 1010,8 hPa 0,0 l/m 0 min 0 min 33 W/m 19,3 km/h (3 Bft) 98,28 %
05.07.2020 20:14 22,3 C 21,1 C 20,6 C 71 % 1010,8 hPa 0,0 l/m 0 min 0 min 35 W/m 16,1 km/h (3 Bft) 97,87 %
05.07.2020 20:16 22,3 C 21,1 C 20,6 C 71 % 1010,8 hPa 0,0 l/m 0 min 0 min 42 W/m 19,3 km/h (3 Bft) 95,74 %
05.07.2020 20:18 22,3 C 21,1 C 20,6 C 71 % 1010,8 hPa 0,0 l/m 0 min 0 min 50 W/m 19,3 km/h (3 Bft) 97,87 %
05.07.2020 20:20 22,2 C 21,1 C 20,6 C 71 % 1010,7 hPa 0,0 l/m 0 min 0 min 44 W/m 19,3 km/h (3 Bft) 95,74 %
05.07.2020 20:22 22,2 C 21,1 C 20,6 C 71 % 1010,8 hPa 0,0 l/m 0 min 0 min 36 W/m 19,3 km/h (3 Bft) 100,00 %
05.07.2020 20:24 22,2 C 21,1 C 20,6 C 71 % 1010,7 hPa 0,0 l/m 0 min 0 min 47 W/m 19,3 km/h (3 Bft) 100,00 %
05.07.2020 20:26 22,2 C 21,1 C 20,6 C 71 % 1010,7 hPa 0,0 l/m 0 min 0 min 59 W/m 16,1 km/h (3 Bft) 97,87 %
05.07.2020 20:28 22,2 C 21,1 C 20,6 C 72 % 1010,7 hPa 0,0 l/m 0 min 0 min 56 W/m 16,1 km/h (3 Bft) 100,00 %
05.07.2020 20:30 22,1 C 21,1 C 20,6 C 72 % 1010,7 hPa 0,0 l/m 0 min 0 min 50 W/m 16,1 km/h (3 Bft) 100,00 %
05.07.2020 20:32 22,1 C 21,1 C 20,6 C 72 % 1010,7 hPa 0,0 l/m 0 min 0 min 51 W/m 19,3 km/h (3 Bft) 100,00 %
05.07.2020 20:34 22,1 C 21,1 C 20,6 C 72 % 1010,8 hPa 0,0 l/m 0 min 0 min 55 W/m 19,3 km/h (3 Bft) 100,00 %
05.07.2020 20:36 22,1 C 21,1 C 20,6 C 71 % 1010,8 hPa 0,0 l/m 0 min 0 min 52 W/m 38,6 km/h (5 Bft) 97,87 %
05.07.2020 20:38 22,1 C 21,1 C 20,6 C 71 % 1010,9 hPa 0,0 l/m 0 min 0 min 48 W/m 16,1 km/h (3 Bft) 100,00 %
05.07.2020 20:40 22,1 C 21,1 C 20,6 C 71 % 1011,0 hPa 0,0 l/m 0 min 0 min 48 W/m 19,3 km/h (3 Bft) 100,00 %
05.07.2020 20:42 22,0 C 21,1 C 20,6 C 70 % 1010,9 hPa 0,0 l/m 0 min 0 min 42 W/m 25,7 km/h (4 Bft) 100,00 %
05.07.2020 20:44 21,9 C 21,1 C 20,6 C 69 % 1010,9 hPa 0,0 l/m 0 min 0 min 36 W/m 22,5 km/h (4 Bft) 100,00 %
05.07.2020 20:46 21,9 C 21,1 C 20,0 C 69 % 1010,8 hPa 0,0 l/m 0 min 0 min 35 W/m 16,1 km/h (3 Bft) 100,00 %
05.07.2020 20:48 21,9 C 20,6 C 20,0 C 69 % 1010,9 hPa 0,0 l/m 0 min 0 min 33 W/m 12,9 km/h (3 Bft) 100,00 %
05.07.2020 20:50 21,9 C 21,1 C 20,0 C 69 % 1011,2 hPa 0,0 l/m 0 min 0 min 36 W/m 25,7 km/h (4 Bft) 100,00 %
05.07.2020 20:52 21,8 C 21,1 C 20,0 C 69 % 1011,0 hPa 0,0 l/m 0 min 0 min 47 W/m 25,7 km/h (4 Bft) 100,00 %
05.07.2020 20:54 21,8 C 21,1 C 20,0 C 69 % 1010,9 hPa 0,0 l/m 0 min 0 min 43 W/m 16,1 km/h (3 Bft) 100,00 %
05.07.2020 20:56 21,8 C 21,1 C 20,0 C 69 % 1010,9 hPa 0,0 l/m 0 min 0 min 44 W/m 12,9 km/h (3 Bft) 100,00 %
05.07.2020 20:58 21,8 C 20,6 C 20,0 C 69 % 1010,9 hPa 0,0 l/m 0 min 0 min 26 W/m 12,9 km/h (3 Bft) 100,00 %
05.07.2020 21:00 21,8 C 20,6 C 20,0 C 70 % 1010,9 hPa 0,0 l/m 0 min 0 min 25 W/m 12,9 km/h (3 Bft) 100,00 %
05.07.2020 21:02 21,8 C 20,6 C 20,0 C 70 % 1011,0 hPa 0,0 l/m 0 min 0 min 23 W/m 16,1 km/h (3 Bft) 100,00 %
05.07.2020 21:04 21,7 C 20,6 C 20,0 C 70 % 1011,0 hPa 0,0 l/m 0 min 0 min 16 W/m 29,0 km/h (5 Bft) 100,00 %
05.07.2020 21:06 21,7 C 20,6 C 20,0 C 70 % 1010,8 hPa 0,0 l/m 0 min 0 min 15 W/m 22,5 km/h (4 Bft) 100,00 %
05.07.2020 21:08 21,6 C 20,6 C 20,0 C 70 % 1010,9 hPa 0,0 l/m 0 min 0 min 16 W/m 9,7 km/h (2 Bft) 100,00 %
05.07.2020 21:10 21,6 C 20,0 C 20,0 C 71 % 1011,0 hPa 0,0 l/m 0 min 0 min 14 W/m 19,3 km/h (3 Bft) 100,00 %
05.07.2020 21:12 21,6 C 20,0 C 19,4 C 71 % 1010,9 hPa 0,0 l/m 0 min 0 min 12 W/m 12,9 km/h (3 Bft) 100,00 %
05.07.2020 21:14 21,5 C 20,0 C 19,4 C 71 % 1011,0 hPa 0,0 l/m 0 min 0 min 12 W/m 16,1 km/h (3 Bft) 100,00 %
05.07.2020 21:16 21,4 C 20,0 C 19,4 C 71 % 1011,0 hPa 0,0 l/m 0 min 0 min 11 W/m 25,7 km/h (4 Bft) 100,00 %
05.07.2020 21:18 21,4 C 20,0 C 19,4 C 71 % 1010,8 hPa 0,0 l/m 0 min 0 min 11 W/m 16,1 km/h (3 Bft) 100,00 %
05.07.2020 21:20 21,3 C 20,0 C 19,4 C 71 % 1011,0 hPa 0,0 l/m 0 min 0 min 10 W/m 16,1 km/h (3 Bft) 100,00 %
05.07.2020 21:22 21,2 C 20,0 C 19,4 C 71 % 1010,9 hPa 0,0 l/m 0 min 0 min 10 W/m 29,0 km/h (5 Bft) 100,00 %
05.07.2020 21:24 21,2 C 19,4 C 19,4 C 71 % 1011,0 hPa 0,0 l/m 0 min 0 min 9 W/m 19,3 km/h (3 Bft) 100,00 %
05.07.2020 21:26 21,1 C 19,4 C 19,4 C 71 % 1010,9 hPa 0,0 l/m 0 min 0 min 9 W/m 19,3 km/h (3 Bft) 100,00 %
05.07.2020 21:28 21,1 C 19,4 C 19,4 C 71 % 1011,0 hPa 0,0 l/m 0 min 0 min 7 W/m 22,5 km/h (4 Bft) 95,74 %
05.07.2020 21:30 21,1 C 19,4 C 19,4 C 71 % 1011,1 hPa 0,0 l/m 0 min 0 min 7 W/m 19,3 km/h (3 Bft) 97,87 %
05.07.2020 21:32 21,0 C 19,4 C 19,4 C 71 % 1011,0 hPa 0,0 l/m 0 min 0 min 7 W/m 19,3 km/h (3 Bft) 97,87 %
05.07.2020 21:34 20,9 C 19,4 C 18,9 C 71 % 1011,0 hPa 0,0 l/m 0 min 0 min 6 W/m 16,1 km/h (3 Bft) 97,87 %
05.07.2020 21:36 20,9 C 19,4 C 18,9 C 71 % 1011,1 hPa 0,0 l/m 0 min 0 min 5 W/m 22,5 km/h (4 Bft) 97,83 %
05.07.2020 21:38 20,8 C 19,4 C 18,9 C 71 % 1011,1 hPa 0,0 l/m 0 min 0 min 5 W/m 16,1 km/h (3 Bft) 95,74 %
05.07.2020 21:40 20,8 C 18,9 C 18,9 C 71 % 1011,2 hPa 0,0 l/m 0 min 0 min 5 W/m 19,3 km/h (3 Bft) 95,74 %
05.07.2020 21:42 20,7 C 18,9 C 18,9 C 71 % 1011,2 hPa 0,0 l/m 0 min 0 min 5 W/m 29,0 km/h (5 Bft) 95,74 %
05.07.2020 21:44 20,6 C 18,9 C 18,9 C 70 % 1011,3 hPa 0,0 l/m 0 min 0 min 5 W/m 25,7 km/h (4 Bft) 97,87 %
05.07.2020 21:46 20,6 C 18,9 C 18,9 C 69 % 1011,2 hPa 0,0 l/m 0 min 0 min 1 W/m 25,7 km/h (4 Bft) 95,74 %
05.07.2020 21:48 20,5 C 18,9 C 18,9 C 69 % 1011,3 hPa 0,0 l/m 0 min 0 min 0 W/m 12,9 km/h (3 Bft) 95,65 %
05.07.2020 21:50 20,4 C 18,9 C 18,9 C 69 % 1011,2 hPa 0,0 l/m 0 min 0 min 0 W/m 22,5 km/h (4 Bft) 93,62 %
05.07.2020 21:52 20,4 C 18,9 C 18,9 C 68 % 1011,5 hPa 0,0 l/m 0 min 0 min 0 W/m 25,7 km/h (4 Bft) 95,74 %
05.07.2020 21:54 20,3 C 18,9 C 18,9 C 68 % 1011,5 hPa 0,0 l/m 0 min 0 min 0 W/m 29,0 km/h (5 Bft) 97,87 %
05.07.2020 21:56 20,3 C 18,9 C 18,9 C 68 % 1011,3 hPa 0,0 l/m 0 min 0 min 0 W/m 16,1 km/h (3 Bft) 95,74 %
05.07.2020 21:58 20,2 C 18,9 C 18,3 C 68 % 1011,4 hPa 0,0 l/m 0 min 0 min 0 W/m 29,0 km/h (5 Bft) 97,87 %
05.07.2020 22:00 20,2 C 18,9 C 18,3 C 68 % 1011,5 hPa 0,0 l/m 0 min 0 min 0 W/m 32,2 km/h (5 Bft) 93,48 %
05.07.2020 22:02 20,1 C 18,9 C 18,3 C 68 % 1011,5 hPa 0,0 l/m 0 min 0 min 0 W/m 25,7 km/h (4 Bft) 95,74 %
05.07.2020 22:04 20,1 C 18,9 C 18,3 C 68 % 1011,5 hPa 0,0 l/m 0 min 0 min 0 W/m 12,9 km/h (3 Bft) 95,74 %
05.07.2020 22:06 20,1 C 18,9 C 18,3 C 68 % 1011,6 hPa 0,0 l/m 0 min 0 min 0 W/m 12,9 km/h (3 Bft) 95,74 %
05.07.2020 22:08 20,1 C 18,9 C 18,3 C 69 % 1011,6 hPa 0,0 l/m 0 min 0 min 0 W/m 9,7 km/h (2 Bft) 93,62 %
05.07.2020 22:10 20,0 C 18,3 C 18,3 C 69 % 1011,6 hPa 0,0 l/m 0 min 0 min 0 W/m 9,7 km/h (2 Bft) 95,74 %
05.07.2020 22:12 19,9 C 18,3 C 18,3 C 69 % 1011,6 hPa 0,0 l/m 0 min 0 min 0 W/m 9,7 km/h (2 Bft) 94,55 %
05.07.2020 22:14 19,9 C 18,3 C 18,3 C 70 % 1011,8 hPa 0,0 l/m 0 min 0 min 0 W/m 9,7 km/h (2 Bft) 97,87 %
05.07.2020 22:16 19,9 C 18,3 C 17,8 C 71 % 1011,6 hPa 0,0 l/m 0 min 0 min 0 W/m 12,9 km/h (3 Bft) 95,74 %
05.07.2020 22:18 19,8 C 18,3 C 17,8 C 71 % 1011,8 hPa 0,0 l/m 0 min 0 min 0 W/m 19,3 km/h (3 Bft) 95,74 %
05.07.2020 22:20 19,7 C 18,3 C 17,8 C 71 % 1011,7 hPa 0,0 l/m 0 min 0 min 0 W/m 16,1 km/h (3 Bft) 95,65 %
05.07.2020 22:22 19,7 C 18,3 C 17,8 C 70 % 1011,7 hPa 0,0 l/m 0 min 0 min 0 W/m 22,5 km/h (4 Bft) 97,87 %
05.07.2020 22:24 19,6 C 18,3 C 17,8 C 69 % 1011,6 hPa 0,0 l/m 0 min 0 min 0 W/m 12,9 km/h (3 Bft) 93,62 %
05.07.2020 22:26 19,6 C 18,3 C 17,8 C 69 % 1011,7 hPa 0,0 l/m 0 min 0 min 0 W/m 19,3 km/h (3 Bft) 97,87 %
05.07.2020 22:28 19,5 C 17,8 C 17,8 C 69 % 1011,7 hPa 0,0 l/m 0 min 0 min 0 W/m 19,3 km/h (3 Bft) 95,74 %
05.07.2020 22:30 19,4 C 17,8 C 17,8 C 69 % 1011,8 hPa 0,0 l/m 0 min 0 min 0 W/m 19,3 km/h (3 Bft) 97,87 %
05.07.2020 22:32 19,4 C 17,8 C 17,8 C 68 % 1011,9 hPa 0,0 l/m 0 min 0 min 0 W/m 19,3 km/h (3 Bft) 97,83 %
05.07.2020 22:34 19,3 C 17,8 C 17,8 C 68 % 1011,9 hPa 0,0 l/m 0 min 0 min 0 W/m 22,5 km/h (4 Bft) 97,87 %
05.07.2020 22:36 19,2 C 17,8 C 17,8 C 68 % 1012,0 hPa 0,0 l/m 0 min 0 min 0 W/m 19,3 km/h (3 Bft) 97,87 %
05.07.2020 22:38 19,2 C 17,8 C 17,8 C 67 % 1012,0 hPa 0,0 l/m 0 min 0 min 0 W/m 41,8 km/h (6 Bft) 97,87 %
05.07.2020 22:40 19,1 C 17,8 C 17,8 C 67 % 1012,1 hPa 0,0 l/m 0 min 0 min 0 W/m 25,7 km/h (4 Bft) 97,87 %
05.07.2020 22:42 19,1 C 17,8 C 17,8 C 67 % 1011,9 hPa 0,0 l/m 0 min 0 min 0 W/m 19,3 km/h (3 Bft) 97,87 %
05.07.2020 22:44 19,1 C 17,8 C 17,8 C 67 % 1011,9 hPa 0,0 l/m 0 min 0 min 0 W/m 22,5 km/h (4 Bft) 95,65 %
05.07.2020 22:46 19,0 C 17,8 C 17,2 C 67 % 1011,9 hPa 0,0 l/m 0 min 0 min 0 W/m 12,9 km/h (3 Bft) 97,87 %
05.07.2020 22:48 18,9 C 17,8 C 17,2 C 67 % 1011,9 hPa 0,0 l/m 0 min 0 min 0 W/m 16,1 km/h (3 Bft) 97,87 %
05.07.2020 22:50 18,9 C 17,8 C 17,2 C 67 % 1011,8 hPa 0,0 l/m 0 min 0 min 0 W/m 22,5 km/h (4 Bft) 100,00 %
05.07.2020 22:52 18,9 C 17,2 C 17,2 C 68 % 1011,9 hPa 0,0 l/m 0 min 0 min 0 W/m 35,4 km/h (5 Bft) 97,87 %
05.07.2020 22:54 18,8 C 17,2 C 17,2 C 68 % 1011,9 hPa 0,0 l/m 0 min 0 min 0 W/m 19,3 km/h (3 Bft) 100,00 %
05.07.2020 22:56 18,8 C 17,2 C 17,2 C 69 % 1012,0 hPa 0,0 l/m 0 min 0 min 0 W/m 25,7 km/h (4 Bft) 97,83 %
05.07.2020 22:58 18,7 C 17,2 C 17,2 C 69 % 1011,9 hPa 0,0 l/m 0 min 0 min 0 W/m 19,3 km/h (3 Bft) 95,74 %
05.07.2020 23:00 18,7 C 17,2 C 17,2 C 70 % 1012,0 hPa 0,0 l/m 0 min 0 min 0 W/m 12,9 km/h (3 Bft) 97,87 %
05.07.2020 23:02 18,7 C 17,2 C 17,2 C 70 % 1012,0 hPa 0,0 l/m 0 min 0 min 0 W/m 19,3 km/h (3 Bft) 97,92 %
05.07.2020 23:04 18,6 C 17,2 C 17,2 C 70 % 1012,0 hPa 0,0 l/m 0 min 0 min 0 W/m 12,9 km/h (3 Bft) 97,87 %
05.07.2020 23:06 18,6 C 17,2 C 17,2 C 70 % 1012,0 hPa 0,0 l/m 0 min 0 min 0 W/m 25,7 km/h (4 Bft) 97,83 %
05.07.2020 23:08 18,5 C 17,2 C 17,2 C 70 % 1012,0 hPa 0,0 l/m 0 min 0 min 0 W/m 22,5 km/h (4 Bft) 97,87 %
05.07.2020 23:10 18,4 C 17,2 C 17,2 C 70 % 1011,9 hPa 0,0 l/m 0 min 0 min 0 W/m 22,5 km/h (4 Bft) 97,87 %
05.07.2020 23:12 18,4 C 17,2 C 17,2 C 70 % 1012,0 hPa 0,0 l/m 0 min 0 min 0 W/m 19,3 km/h (3 Bft) 97,87 %
05.07.2020 23:14 18,4 C 17,2 C 16,7 C 70 % 1012,0 hPa 0,0 l/m 0 min 0 min 0 W/m 12,9 km/h (3 Bft) 95,74 %
05.07.2020 23:16 18,3 C 16,7 C 16,7 C 70 % 1012,0 hPa 0,0 l/m 0 min 0 min 0 W/m 16,1 km/h (3 Bft) 97,87 %
05.07.2020 23:18 18,3 C 16,7 C 16,7 C 70 % 1012,0 hPa 0,0 l/m 0 min 0 min 0 W/m 12,9 km/h (3 Bft) 97,83 %
05.07.2020 23:20 18,3 C 16,7 C 16,7 C 70 % 1012,1 hPa 0,0 l/m 0 min 0 min 0 W/m 12,9 km/h (3 Bft) 97,87 %
05.07.2020 23:22 18,2 C 16,7 C 16,7 C 70 % 1012,1 hPa 0,0 l/m 0 min 0 min 0 W/m 22,5 km/h (4 Bft) 95,74 %
05.07.2020 23:24 18,2 C 16,7 C 16,7 C 70 % 1012,0 hPa 0,0 l/m 0 min 0 min 0 W/m 16,1 km/h (3 Bft) 95,74 %
05.07.2020 23:26 18,1 C 16,7 C 16,7 C 70 % 1012,1 hPa 0,0 l/m 0 min 0 min 0 W/m 16,1 km/h (3 Bft) 97,87 %
05.07.2020 23:28 18,1 C 16,7 C 16,7 C 70 % 1012,0 hPa 0,0 l/m 0 min 0 min 0 W/m 16,1 km/h (3 Bft) 97,87 %
05.07.2020 23:30 18,1 C 16,7 C 16,7 C 70 % 1012,1 hPa 0,0 l/m 0 min 0 min 0 W/m 22,5 km/h (4 Bft) 97,83 %
05.07.2020 23:32 18,0 C 16,7 C 16,7 C 70 % 1012,1 hPa 0,0 l/m 0 min 0 min 0 W/m 19,3 km/h (3 Bft) 97,87 %
05.07.2020 23:34 18,0 C 16,7 C 16,7 C 70 % 1012,1 hPa 0,0 l/m 0 min 0 min 0 W/m 19,3 km/h (3 Bft) 97,87 %
05.07.2020 23:36 17,9 C 16,7 C 16,7 C 71 % 1012,1 hPa 0,0 l/m 0 min 0 min 0 W/m 9,7 km/h (2 Bft) 97,87 %
05.07.2020 23:38 17,9 C 16,7 C 16,7 C 71 % 1012,1 hPa 0,0 l/m 0 min 0 min 0 W/m 9,7 km/h (2 Bft) 97,87 %
05.07.2020 23:40 17,9 C 16,7 C 16,7 C 71 % 1012,2 hPa 0,0 l/m 0 min 0 min 0 W/m 12,9 km/h (3 Bft) 97,83 %
05.07.2020 23:42 17,8 C 16,1 C 16,7 C 71 % 1012,2 hPa 0,0 l/m 0 min 0 min 0 W/m 6,4 km/h (2 Bft) 97,87 %
05.07.2020 23:44 17,8 C 16,1 C 16,1 C 72 % 1012,2 hPa 0,0 l/m 0 min 0 min 0 W/m 9,7 km/h (2 Bft) 97,87 %
05.07.2020 23:46 17,8 C 16,1 C 16,1 C 72 % 1012,2 hPa 0,0 l/m 0 min 0 min 0 W/m 6,4 km/h (2 Bft) 95,74 %
05.07.2020 23:48 17,8 C 16,1 C 16,1 C 72 % 1012,2 hPa 0,0 l/m 0 min 0 min 0 W/m 6,4 km/h (2 Bft) 95,74 %
05.07.2020 23:50 17,7 C 16,1 C 16,1 C 73 % 1012,2 hPa 0,0 l/m 0 min 0 min 0 W/m 12,9 km/h (3 Bft) 97,87 %
05.07.2020 23:52 17,7 C 16,1 C 16,1 C 73 % 1012,2 hPa 0,0 l/m 0 min 0 min 0 W/m 12,9 km/h (3 Bft) 97,83 %
05.07.2020 23:54 17,6 C 16,1 C 16,1 C 73 % 1012,2 hPa 0,0 l/m 0 min 0 min 0 W/m 6,4 km/h (2 Bft) 100,00 %
05.07.2020 23:56 17,6 C 15,6 C 16,1 C 73 % 1012,2 hPa 0,0 l/m 0 min 0 min 0 W/m 12,9 km/h (3 Bft) 97,87 %
05.07.2020 23:58 17,6 C 15,6 C 16,1 C 73 % 1012,3 hPa 0,0 l/m 0 min 0 min 0 W/m 12,9 km/h (3 Bft) 100,00 %
_ Min-Zeit 23:54 23:56 23:44 22:38 19:48 - - - - 05:12 06:04
Minimum _ 17,6 C 15,6 C 16,1 C 67 % 1010,7 hPa - - - - 0,0 km/h (0 Bft) 91,30 %
_ Max-Zeit 19:04 18:10 16:46 08:30 00:00 05:54 18:08 04:02 16:02 10:26 01:28
Maximum _ 23,9 C 26,1 C 22,2 C 99 % 1013,5 hPa 0,2 l/m 4 min 2 min 821 W/m 51,5 km/h
O (7 Bft)
100,00 %
Durchschnitt _ 20,6 C 19,9 C 19,1 C 86 % 1011,9 hPa #0,8 l/m #2:10 h #1:44 h 189 W/m 20,6 km/h (4 Bft) 97,47 %
© 2020 W. Hausmann